Time,TemperatureF,DewpointF,PressureIn,WindDirection,WindDirectionDegrees,WindSpeedMPH,WindSpeedGustMPH,Humidity,HourlyPrecipIn,Conditions,Clouds,dailyrainin,SolarRadiationWatts/m^2,SoftwareType,DateUTC
2013-03-05 00:00:00,56.8,50.4,30.16,NNW,328,0.0,0.0,79,0.00,,FEW,0.00,0.00,VWS V14.01,2013-03-05 05:00:00,
2013-03-05 00:05:00,56.8,50.4,30.15,NNW,328,0.0,0.0,79,0.00,,FEW,0.00,0.00,VWS V14.01,2013-03-05 05:05:00,
2013-03-05 00:10:00,56.8,50.4,30.15,NNW,328,0.0,0.0,79,0.00,,FEW,0.00,0.00,VWS V14.01,2013-03-05 05:10:00,
2013-03-05 00:15:00,56.7,50.3,30.15,NNW,328,1.0,2.0,79,0.00,,FEW,0.00,0.00,VWS V14.01,2013-03-05 05:15:00,
2013-03-05 00:20:00,56.8,50.7,30.14,NNW,328,1.0,2.0,80,0.00,,FEW,0.00,0.00,VWS V14.01,2013-03-05 05:20:00,
2013-03-05 00:21:00,56.8,50.7,30.14,NNW,328,1.0,2.0,80,0.00,,FEW,0.00,0.00,VWS V14.01,2013-03-05 05:21:00,
2013-03-05 00:25:00,56.8,50.7,30.14,NNW,328,2.0,2.0,80,0.00,,FEW,0.00,0.00,VWS V14.01,2013-03-05 05:25:00,
2013-03-05 00:26:00,56.8,50.7,30.14,NNW,328,2.0,2.0,80,0.00,,FEW,0.00,0.00,VWS V14.01,2013-03-05 05:26:00,
2013-03-05 00:30:00,56.9,50.8,30.14,North,355,1.0,3.0,80,0.00,,FEW,0.00,0.00,VWS V14.01,2013-03-05 05:30:00,
2013-03-05 00:31:00,56.9,50.8,30.14,North,355,1.0,3.0,80,0.00,,FEW,0.00,0.00,VWS V14.01,2013-03-05 05:31:00,
2013-03-05 00:35:00,57.0,50.6,30.15,North,355,2.0,2.0,79,0.00,,FEW,0.00,0.00,VWS V14.01,2013-03-05 05:35:00,
2013-03-05 00:36:00,57.0,50.6,30.15,North,355,2.0,2.0,79,0.00,,FEW,0.00,0.00,VWS V14.01,2013-03-05 05:36:00,
2013-03-05 00:40:00,57.3,50.8,30.15,North,355,1.0,2.0,79,0.00,,FEW,0.00,0.00,VWS V14.01,2013-03-05 05:40:00,
2013-03-05 00:41:00,57.3,50.8,30.15,North,355,0.0,2.0,79,0.00,,FEW,0.00,0.00,VWS V14.01,2013-03-05 05:41:00,
2013-03-05 00:45:00,57.5,51.0,30.15,North,5,1.0,3.0,79,0.00,,FEW,0.00,0.00,VWS V14.01,2013-03-05 05:45:00,
2013-03-05 00:46:00,57.5,51.0,30.15,North,5,2.0,3.0,79,0.00,,FEW,0.00,0.00,VWS V14.01,2013-03-05 05:46:00,
2013-03-05 00:51:00,57.7,51.2,30.15,North,5,1.0,3.0,79,0.00,,FEW,0.00,0.00,VWS V14.01,2013-03-05 05:51:00,
2013-03-05 00:56:00,57.8,51.0,30.15,North,5,1.0,2.0,78,0.00,,FEW,0.00,0.00,VWS V14.01,2013-03-05 05:56:00,
2013-03-05 01:01:00,58.0,51.2,30.14,North,5,1.0,3.0,78,0.00,,FEW,0.00,0.00,VWS V14.01,2013-03-05 06:01:00,
2013-03-05 01:02:00,58.0,50.8,30.14,North,5,1.0,3.0,77,0.00,,FEW,0.00,0.00,VWS V14.01,2013-03-05 06:02:00,
2013-03-05 01:06:00,58.0,50.8,30.14,North,5,1.0,2.0,77,0.00,,FEW,0.00,0.00,VWS V14.01,2013-03-05 06:06:00,
2013-03-05 01:07:00,58.0,50.8,30.14,North,5,0.0,2.0,77,0.00,,FEW,0.00,0.00,VWS V14.01,2013-03-05 06:07:00,
2013-03-05 01:11:00,57.9,50.7,30.14,NNE,15,2.0,2.0,77,0.00,,FEW,0.00,0.00,VWS V14.01,2013-03-05 06:11:00,
2013-03-05 01:12:00,57.9,50.7,30.14,NNE,15,2.0,2.0,77,0.00,,FEW,0.00,0.00,VWS V14.01,2013-03-05 06:12:00,
2013-03-05 01:16:00,57.9,50.7,30.14,North,5,1.0,3.0,77,0.00,,FEW,0.00,0.00,VWS V14.01,2013-03-05 06:16:00,
2013-03-05 01:17:00,57.9,50.7,30.14,North,5,1.0,3.0,77,0.00,,FEW,0.00,0.00,VWS V14.01,2013-03-05 06:17:00,
2013-03-05 01:21:00,57.9,50.7,30.14,North,11,2.0,3.0,77,0.00,,FEW,0.00,0.00,VWS V14.01,2013-03-05 06:21:00,
2013-03-05 01:22:00,57.9,50.7,30.14,North,11,1.0,2.0,77,0.00,,FEW,0.00,0.00,VWS V14.01,2013-03-05 06:22:00,
2013-03-05 01:27:00,58.0,50.8,30.14,NNE,24,2.0,3.0,77,0.00,,FEW,0.00,0.00,VWS V14.01,2013-03-05 06:27:00,
2013-03-05 01:32:00,58.1,50.9,30.14,NNE,24,2.0,2.0,77,0.00,,FEW,0.00,0.00,VWS V14.01,2013-03-05 06:32:00,
2013-03-05 01:37:00,58.1,50.9,30.14,North,5,1.0,3.0,77,0.00,,FEW,0.00,0.00,VWS V14.01,2013-03-05 06:37:00,
2013-03-05 01:42:00,58.2,51.0,30.14,North,5,1.0,2.0,77,0.00,,FEW,0.00,0.00,VWS V14.01,2013-03-05 06:42:00,
2013-03-05 01:47:00,58.2,51.0,30.13,NNE,19,2.0,3.0,77,0.00,,FEW,0.00,0.00,VWS V14.01,2013-03-05 06:47:00,
2013-03-05 01:48:00,58.2,51.0,30.13,NNE,21,2.0,3.0,77,0.00,,FEW,0.00,0.00,VWS V14.01,2013-03-05 06:48:00,
2013-03-05 01:52:00,58.2,51.0,30.13,NNE,15,1.0,1.0,77,0.00,,FEW,0.00,0.00,VWS V14.01,2013-03-05 06:52:00,
2013-03-05 01:53:00,58.2,51.0,30.13,NNE,15,0.0,1.0,77,0.00,,FEW,0.00,0.00,VWS V14.01,2013-03-05 06:53:00,
2013-03-05 01:57:00,58.3,50.8,30.13,NNE,15,2.0,2.0,76,0.00,,FEW,0.00,0.00,VWS V14.01,2013-03-05 06:57:00,
2013-03-05 01:58:00,58.3,50.8,30.13,NNE,15,1.0,2.0,76,0.00,,FEW,0.00,0.00,VWS V14.01,2013-03-05 06:58:00,
2013-03-05 02:02:00,58.3,50.8,30.13,NNE,15,1.0,2.0,76,0.00,,FEW,0.00,0.00,VWS V14.01,2013-03-05 07:02:00,
2013-03-05 02:03:00,58.3,50.8,30.13,NNE,15,1.0,2.0,76,0.00,,FEW,0.00,0.00,VWS V14.01,2013-03-05 07:03:00,
2013-03-05 02:08:00,58.4,50.9,30.13,NNE,15,0.0,2.0,76,0.00,,FEW,0.00,0.00,VWS V14.01,2013-03-05 07:08:00,
2013-03-05 02:13:00,58.3,50.8,30.13,NE,38,2.0,4.0,76,0.00,,FEW,0.00,0.00,VWS V14.01,2013-03-05 07:13:00,
2013-03-05 02:18:00,58.3,50.8,30.13,NE,34,1.0,4.0,76,0.00,,FEW,0.00,0.00,VWS V14.01,2013-03-05 07:18:00,
2013-03-05 02:23:00,58.4,51.2,30.13,NE,37,2.0,3.0,77,0.00,,FEW,0.00,0.00,VWS V14.01,2013-03-05 07:23:00,
2013-03-05 02:24:00,58.5,51.3,30.13,North,5,2.0,3.0,77,0.00,,FEW,0.00,0.00,VWS V14.01,2013-03-05 07:24:00,
2013-03-05 02:28:00,58.7,51.5,30.13,NNE,25,3.0,4.0,77,0.00,,FEW,0.00,0.00,VWS V14.01,2013-03-05 07:28:00,
2013-03-05 02:29:00,58.7,51.5,30.13,NNE,30,1.0,4.0,77,0.00,,FEW,0.00,0.00,VWS V14.01,2013-03-05 07:29:00,
2013-03-05 02:33:00,58.9,51.4,30.13,NNE,21,2.0,4.0,76,0.00,,FEW,0.00,0.00,VWS V14.01,2013-03-05 07:33:00,
2013-03-05 02:34:00,58.9,51.4,30.13,NNE,21,2.0,4.0,76,0.00,,FEW,0.00,0.00,VWS V14.01,2013-03-05 07:34:00,
2013-03-05 02:38:00,59.1,51.5,30.13,NNE,17,3.0,4.0,76,0.00,,FEW,0.00,0.00,VWS V14.01,2013-03-05 07:38:00,
2013-03-05 02:39:00,59.1,51.5,30.13,NNE,30,2.0,4.0,76,0.00,,FEW,0.00,0.00,VWS V14.01,2013-03-05 07:39:00,
2013-03-05 02:43:00,59.3,51.4,30.13,NNE,33,2.0,3.0,75,0.00,,FEW,0.00,0.00,VWS V14.01,2013-03-05 07:43:00,
2013-03-05 02:44:00,59.4,51.5,30.13,NNE,24,3.0,3.0,75,0.00,,FEW,0.00,0.00,VWS V14.01,2013-03-05 07:44:00,
2013-03-05 02:48:00,59.5,51.6,30.12,NNE,26,3.0,5.0,75,0.00,,FEW,0.00,0.00,VWS V14.01,2013-03-05 07:48:00,
2013-03-05 02:49:00,59.5,51.6,30.12,North,10,2.0,5.0,75,0.00,,FEW,0.00,0.00,VWS V14.01,2013-03-05 07:49:00,
2013-03-05 02:54:00,59.7,51.8,30.12,NNE,23,3.0,4.0,75,0.00,,FEW,0.00,0.00,VWS V14.01,2013-03-05 07:54:00,
2013-03-05 02:59:00,59.8,51.5,30.12,NE,40,2.0,5.0,74,0.00,,FEW,0.00,0.00,VWS V14.01,2013-03-05 07:59:00,
2013-03-05 03:04:00,60.0,51.7,30.12,NE,42,2.0,5.0,74,0.00,,FEW,0.00,0.00,VWS V14.01,2013-03-05 08:04:00,
2013-03-05 03:09:00,60.2,51.9,30.12,NE,37,2.0,5.0,74,0.00,,FEW,0.00,0.00,VWS V14.01,2013-03-05 08:09:00,
2013-03-05 03:10:00,60.2,51.9,30.12,NNE,31,2.0,5.0,74,0.00,,FEW,0.00,0.00,VWS V14.01,2013-03-05 08:10:00,
2013-03-05 03:14:00,60.2,51.9,30.12,NNE,28,3.0,4.0,74,0.00,,FEW,0.00,0.00,VWS V14.01,2013-03-05 08:14:00,
2013-03-05 03:15:00,60.2,51.9,30.12,NE,42,2.0,4.0,74,0.00,,FEW,0.00,0.00,VWS V14.01,2013-03-05 08:15:00,
2013-03-05 03:19:00,60.2,51.9,30.12,NNE,23,1.0,4.0,74,0.00,,FEW,0.00,0.00,VWS V14.01,2013-03-05 08:19:00,
2013-03-05 03:20:00,60.2,51.9,30.12,NE,38,2.0,4.0,74,0.00,,FEW,0.00,0.00,VWS V14.01,2013-03-05 08:20:00,
2013-03-05 03:24:00,60.3,52.0,30.12,NE,44,2.0,3.0,74,0.00,,FEW,0.00,0.00,VWS V14.01,2013-03-05 08:24:00,
2013-03-05 03:25:00,60.3,52.0,30.12,NE,41,1.0,3.0,74,0.00,,FEW,0.00,0.00,VWS V14.01,2013-03-05 08:25:00,
2013-03-05 03:29:00,60.3,52.3,30.12,NNE,33,3.0,3.0,75,0.00,,FEW,0.00,0.00,VWS V14.01,2013-03-05 08:29:00,
2013-03-05 03:30:00,60.3,52.3,30.12,NE,38,2.0,3.0,75,0.00,,FEW,0.00,0.00,VWS V14.01,2013-03-05 08:30:00,
2013-03-05 03:34:00,60.4,52.5,30.11,NE,36,3.0,3.0,75,0.00,,FEW,0.00,0.00,VWS V14.01,2013-03-05 08:34:00,
2013-03-05 03:35:00,60.4,52.5,30.11,NE,44,4.0,4.0,75,0.00,,FEW,0.00,0.00,VWS V14.01,2013-03-05 08:35:00,
2013-03-05 03:39:00,60.5,52.9,30.11,NE,47,4.0,5.0,76,0.00,,FEW,0.00,0.00,VWS V14.01,2013-03-05 08:39:00,
2013-03-05 03:40:00,60.5,52.9,30.11,NE,47,4.0,5.0,76,0.00,,FEW,0.00,0.00,VWS V14.01,2013-03-05 08:40:00,
2013-03-05 03:44:00,60.5,52.9,30.11,NNE,31,4.0,4.0,76,0.00,,FEW,0.00,0.00,VWS V14.01,2013-03-05 08:44:00,
2013-03-05 03:45:00,60.5,52.9,30.11,NE,36,2.0,5.0,76,0.00,,FEW,0.00,0.00,VWS V14.01,2013-03-05 08:45:00,
2013-03-05 03:46:00,60.5,52.9,30.11,NNE,28,3.0,5.0,76,0.00,,FEW,0.00,0.00,VWS V14.01,2013-03-05 08:46:00,
2013-03-05 03:49:00,60.6,53.0,30.11,NE,48,1.0,5.0,76,0.00,,FEW,0.00,0.00,VWS V14.01,2013-03-05 08:49:00,
2013-03-05 03:50:00,60.5,52.9,30.11,NE,37,3.0,5.0,76,0.00,,FEW,0.00,0.00,VWS V14.01,2013-03-05 08:50:00,
2013-03-05 03:51:00,60.6,53.0,30.11,NE,36,4.0,5.0,76,0.00,,FEW,0.00,0.00,VWS V14.01,2013-03-05 08:51:00,
2013-03-05 03:54:00,60.6,53.0,30.11,NE,54,4.0,7.0,76,0.00,,FEW,0.00,0.00,VWS V14.01,2013-03-05 08:54:00,
2013-03-05 03:55:00,60.6,53.0,30.11,NNE,20,2.0,7.0,76,0.00,,FEW,0.00,0.00,VWS V14.01,2013-03-05 08:55:00,
2013-03-05 03:56:00,60.7,53.1,30.11,NE,41,3.0,7.0,76,0.00,,FEW,0.00,0.00,VWS V14.01,2013-03-05 08:56:00,
2013-03-05 04:00:00,60.8,53.2,30.11,NE,40,3.0,7.0,76,0.00,,FEW,0.00,0.00,VWS V14.01,2013-03-05 09:00:00,
2013-03-05 04:01:00,60.9,53.7,30.11,NE,46,3.0,7.0,77,0.00,,FEW,0.00,0.00,VWS V14.01,2013-03-05 09:01:00,
2013-03-05 04:05:00,60.9,53.3,30.11,NE,36,2.0,4.0,76,0.00,,FEW,0.00,0.00,VWS V14.01,2013-03-05 09:05:00,
2013-03-05 04:06:00,60.9,53.3,30.11,NE,40,2.0,4.0,76,0.00,,FEW,0.00,0.00,VWS V14.01,2013-03-05 09:06:00,
2013-03-05 04:10:00,60.9,53.3,30.11,NE,36,1.0,6.0,76,0.00,,FEW,0.00,0.00,VWS V14.01,2013-03-05 09:10:00,
2013-03-05 04:11:00,60.9,53.3,30.11,NNE,30,2.0,6.0,76,0.00,,FEW,0.00,0.00,VWS V14.01,2013-03-05 09:11:00,
2013-03-05 04:15:00,60.8,53.2,30.11,NNE,33,3.0,4.0,76,0.00,,FEW,0.00,0.00,VWS V14.01,2013-03-05 09:15:00,
2013-03-05 04:16:00,60.8,53.5,30.11,NNE,33,2.0,4.0,77,0.00,,FEW,0.00,0.00,VWS V14.01,2013-03-05 09:16:00,
2013-03-05 04:20:00,60.8,53.5,30.11,NE,34,3.0,5.0,77,0.00,,FEW,0.00,0.00,VWS V14.01,2013-03-05 09:20:00,
2013-03-05 04:21:00,60.9,53.7,30.11,NNE,19,3.0,5.0,77,0.00,,FEW,0.00,0.00,VWS V14.01,2013-03-05 09:21:00,
2013-03-05 04:25:00,61.0,53.8,30.11,NE,44,2.0,7.0,77,0.00,,FEW,0.00,0.00,VWS V14.01,2013-03-05 09:25:00,
2013-03-05 04:26:00,61.0,53.4,30.11,NE,42,6.0,7.0,76,0.00,,FEW,0.00,0.00,VWS V14.01,2013-03-05 09:26:00,
2013-03-05 04:27:00,61.0,53.4,30.11,NNE,26,2.0,7.0,76,0.00,,FEW,0.00,0.00,VWS V14.01,2013-03-05 09:27:00,
2013-03-05 04:30:00,61.1,53.5,30.11,NNE,13,2.0,7.0,76,0.00,,FEW,0.00,0.00,VWS V14.01,2013-03-05 09:30:00,
2013-03-05 04:31:00,61.2,53.6,30.11,NE,42,2.0,7.0,76,0.00,,FEW,0.00,0.00,VWS V14.01,2013-03-05 09:31:00,
2013-03-05 04:32:00,61.2,53.6,30.11,NNE,26,5.0,5.0,76,0.00,,FEW,0.00,0.00,VWS V14.01,2013-03-05 09:32:00,
2013-03-05 04:35:00,61.3,54.0,30.11,NE,54,5.0,7.0,77,0.00,,FEW,0.00,0.00,VWS V14.01,2013-03-05 09:35:00,
2013-03-05 04:37:00,61.3,54.0,30.11,NE,38,2.0,7.0,77,0.00,,FEW,0.00,0.00,VWS V14.01,2013-03-05 09:37:00,
2013-03-05 04:40:00,61.4,54.1,30.11,NNE,31,4.0,7.0,77,0.00,,FEW,0.00,0.00,VWS V14.01,2013-03-05 09:40:00,
2013-03-05 04:42:00,61.4,54.1,30.11,NE,47,3.0,7.0,77,0.00,,FEW,0.00,0.00,VWS V14.01,2013-03-05 09:42:00,
2013-03-05 04:45:00,61.4,54.1,30.11,NE,42,4.0,6.0,77,0.00,,FEW,0.00,0.00,VWS V14.01,2013-03-05 09:45:00,
2013-03-05 04:46:00,61.4,54.1,30.11,NE,49,6.0,6.0,77,0.00,,FEW,0.00,0.00,VWS V14.01,2013-03-05 09:46:00,
2013-03-05 04:47:00,61.5,54.2,30.11,NE,53,3.0,6.0,77,0.00,,FEW,0.00,0.00,VWS V14.01,2013-03-05 09:47:00,
2013-03-05 04:50:00,61.5,54.2,30.11,ENE,58,3.0,8.0,77,0.00,,FEW,0.00,0.00,VWS V14.01,2013-03-05 09:50:00,
2013-03-05 04:51:00,61.5,54.2,30.11,NE,42,3.0,8.0,77,0.00,,FEW,0.00,0.00,VWS V14.01,2013-03-05 09:51:00,
2013-03-05 04:52:00,61.5,54.2,30.11,NE,53,3.0,8.0,77,0.00,,FEW,0.00,0.00,VWS V14.01,2013-03-05 09:52:00,
2013-03-05 04:55:00,61.6,54.3,30.11,NE,44,4.0,6.0,77,0.00,,FEW,0.00,0.00,VWS V14.01,2013-03-05 09:55:00,
2013-03-05 04:56:00,61.6,54.3,30.11,NE,51,4.0,6.0,77,0.00,,FEW,0.00,0.00,VWS V14.01,2013-03-05 09:56:00,
2013-03-05 04:57:00,61.6,54.7,30.11,NE,53,4.0,6.0,78,0.00,,FEW,0.00,0.00,VWS V14.01,2013-03-05 09:57:00,
2013-03-05 05:00:00,61.7,54.8,30.11,NE,46,4.0,8.0,78,0.00,,FEW,0.00,0.00,VWS V14.01,2013-03-05 10:00:00,
2013-03-05 05:01:00,61.7,54.8,30.12,NE,36,9.0,9.0,78,0.00,,FEW,0.00,0.00,VWS V14.01,2013-03-05 10:01:00,
2013-03-05 05:02:00,61.7,54.8,30.12,NE,56,3.0,7.0,78,0.00,,FEW,0.00,0.00,VWS V14.01,2013-03-05 10:02:00,
2013-03-05 05:05:00,61.7,54.4,30.12,NE,44,4.0,7.0,77,0.00,,FEW,0.00,0.00,VWS V14.01,2013-03-05 10:05:00,
2013-03-05 05:06:00,61.7,54.4,30.12,NE,42,5.0,7.0,77,0.00,,FEW,0.00,0.00,VWS V14.01,2013-03-05 10:06:00,
2013-03-05 05:07:00,61.7,54.4,30.12,NE,40,3.0,7.0,77,0.00,,FEW,0.00,0.00,VWS V14.01,2013-03-05 10:07:00,
2013-03-05 05:10:00,61.8,54.5,30.12,NNE,26,4.0,7.0,77,0.00,,FEW,0.00,0.00,VWS V14.01,2013-03-05 10:10:00,
2013-03-05 05:11:00,61.8,54.5,30.12,NNE,21,2.0,7.0,77,0.00,,FEW,0.00,0.00,VWS V14.01,2013-03-05 10:11:00,
2013-03-05 05:12:00,61.8,54.5,30.12,NE,55,3.0,3.0,77,0.00,,FEW,0.00,0.00,VWS V14.01,2013-03-05 10:12:00,
2013-03-05 05:15:00,61.9,54.6,30.12,NE,40,2.0,7.0,77,0.00,,FEW,0.00,0.00,VWS V14.01,2013-03-05 10:15:00,
2013-03-05 05:16:00,61.8,54.5,30.13,NNE,27,4.0,7.0,77,0.00,,FEW,0.00,0.00,VWS V14.01,2013-03-05 10:16:00,
2013-03-05 05:17:00,61.8,54.5,30.13,NNE,26,4.0,7.0,77,0.00,,FEW,0.00,0.00,VWS V14.01,2013-03-05 10:17:00,
2013-03-05 05:21:00,61.8,54.5,30.13,NE,34,4.0,7.0,77,0.00,,FEW,0.00,0.00,VWS V14.01,2013-03-05 10:21:00,
2013-03-05 05:22:00,61.7,54.1,30.13,ENE,63,5.0,7.0,76,0.00,,FEW,0.00,0.00,VWS V14.01,2013-03-05 10:22:00,
2013-03-05 05:26:00,61.8,54.5,30.13,NE,55,4.0,7.0,77,0.00,,FEW,0.00,0.00,VWS V14.01,2013-03-05 10:26:00,
2013-03-05 05:27:00,61.8,54.5,30.13,NE,52,3.0,7.0,77,0.00,,FEW,0.00,0.00,VWS V14.01,2013-03-05 10:27:00,
2013-03-05 05:31:00,61.8,54.5,30.13,NE,44,6.0,7.0,77,0.00,,FEW,0.00,0.00,VWS V14.01,2013-03-05 10:31:00,
2013-03-05 05:32:00,61.8,54.5,30.13,NNE,13,5.0,5.0,77,0.00,,FEW,0.00,0.00,VWS V14.01,2013-03-05 10:32:00,
2013-03-05 05:36:00,61.8,54.5,30.13,NE,37,2.0,7.0,77,0.00,,FEW,0.00,0.00,VWS V14.01,2013-03-05 10:36:00,
2013-03-05 05:37:00,61.8,54.5,30.13,NE,38,5.0,7.0,77,0.00,,FEW,0.00,0.00,VWS V14.01,2013-03-05 10:37:00,
2013-03-05 05:38:00,61.8,54.5,30.13,NNE,22,5.0,7.0,77,0.00,,FEW,0.00,0.00,VWS V14.01,2013-03-05 10:38:00,
2013-03-05 05:41:00,61.8,54.2,30.13,NE,41,4.0,8.0,76,0.00,,FEW,0.00,0.00,VWS V14.01,2013-03-05 10:41:00,
2013-03-05 05:42:00,61.8,54.5,30.13,NE,42,9.0,9.0,77,0.00,,FEW,0.00,0.00,VWS V14.01,2013-03-05 10:42:00,
2013-03-05 05:43:00,61.8,54.5,30.13,NNE,32,5.0,9.0,77,0.00,,FEW,0.00,0.00,VWS V14.01,2013-03-05 10:43:00,
2013-03-05 05:46:00,61.9,54.6,30.13,NE,36,3.0,9.0,77,0.00,,FEW,0.00,0.00,VWS V14.01,2013-03-05 10:46:00,
2013-03-05 05:47:00,61.9,54.6,30.13,NE,42,5.0,9.0,77,0.00,,FEW,0.00,0.00,VWS V14.01,2013-03-05 10:47:00,
2013-03-05 05:48:00,62.0,54.7,30.13,NE,51,3.0,9.0,77,0.00,,FEW,0.00,0.00,VWS V14.01,2013-03-05 10:48:00,
2013-03-05 05:51:00,62.0,55.1,30.13,NE,45,4.0,9.0,78,0.00,,FEW,0.00,0.00,VWS V14.01,2013-03-05 10:51:00,
2013-03-05 05:52:00,62.0,55.1,30.13,NE,55,3.0,6.0,78,0.00,,FEW,0.00,0.00,VWS V14.01,2013-03-05 10:52:00,
2013-03-05 05:53:00,62.1,55.2,30.13,ENE,61,3.0,7.0,78,0.00,,FEW,0.00,0.00,VWS V14.01,2013-03-05 10:53:00,
2013-03-05 05:56:00,62.1,55.2,30.13,NE,46,6.0,7.0,78,0.00,,FEW,0.00,0.00,VWS V14.01,2013-03-05 10:56:00,
2013-03-05 05:57:00,62.1,55.2,30.13,NNE,25,4.0,7.0,78,0.00,,FEW,0.00,0.00,VWS V14.01,2013-03-05 10:57:00,
2013-03-05 05:58:00,62.1,55.2,30.13,NE,41,2.0,7.0,78,0.00,,FEW,0.00,0.00,VWS V14.01,2013-03-05 10:58:00,
2013-03-05 06:01:00,62.1,55.2,30.14,NNE,33,3.0,7.0,78,0.00,,FEW,0.00,0.00,VWS V14.01,2013-03-05 11:01:00,
2013-03-05 06:02:00,62.1,55.2,30.14,NE,37,8.0,8.0,78,0.00,,FEW,0.00,0.00,VWS V14.01,2013-03-05 11:02:00,
2013-03-05 06:03:00,62.1,55.2,30.14,NE,38,3.0,8.0,78,0.00,,FEW,0.00,0.00,VWS V14.01,2013-03-05 11:03:00,
2013-03-05 06:04:00,62.1,55.2,30.14,NE,42,3.0,8.0,78,0.00,,FEW,0.00,0.00,VWS V14.01,2013-03-05 11:04:00,
2013-03-05 06:07:00,62.0,55.1,30.14,NNE,26,1.0,8.0,78,0.00,,FEW,0.00,0.00,VWS V14.01,2013-03-05 11:07:00,
2013-03-05 06:08:00,62.0,55.1,30.14,ENE,66,5.0,8.0,78,0.00,,FEW,0.00,0.00,VWS V14.01,2013-03-05 11:08:00,
2013-03-05 06:09:00,62.0,55.4,30.14,NE,38,6.0,8.0,79,0.00,,FEW,0.00,0.00,VWS V14.01,2013-03-05 11:09:00,
2013-03-05 06:12:00,62.0,55.4,30.14,ENE,63,4.0,4.0,79,0.00,,FEW,0.00,0.00,VWS V14.01,2013-03-05 11:12:00,
2013-03-05 06:13:00,62.0,55.4,30.14,ENE,57,0.0,5.0,79,0.00,,FEW,0.00,0.00,VWS V14.01,2013-03-05 11:13:00,
2013-03-05 06:14:00,62.0,55.4,30.14,NE,50,2.0,5.0,79,0.00,,FEW,0.00,0.00,VWS V14.01,2013-03-05 11:14:00,
2013-03-05 06:17:00,62.0,55.4,30.14,NE,45,2.0,5.0,79,0.00,,FEW,0.00,0.00,VWS V14.01,2013-03-05 11:17:00,
2013-03-05 06:18:00,62.0,55.4,30.14,NE,53,2.0,5.0,79,0.00,,FEW,0.00,0.00,VWS V14.01,2013-03-05 11:18:00,
2013-03-05 06:19:00,62.0,55.4,30.14,ENE,76,3.0,5.0,79,0.00,,FEW,0.00,0.00,VWS V14.01,2013-03-05 11:19:00,
2013-03-05 06:22:00,62.0,55.4,30.14,ENE,61,3.0,3.0,79,0.00,,FEW,0.00,0.00,VWS V14.01,2013-03-05 11:22:00,
2013-03-05 06:23:00,62.0,55.4,30.14,NE,39,4.0,5.0,79,0.00,,FEW,0.00,0.00,VWS V14.01,2013-03-05 11:23:00,
2013-03-05 06:24:00,62.0,55.4,30.14,NE,40,3.0,5.0,79,0.00,,FEW,0.00,0.00,VWS V14.01,2013-03-05 11:24:00,
2013-03-05 06:27:00,62.0,55.4,30.14,NE,46,1.0,7.0,79,0.00,,FEW,0.00,0.00,VWS V14.01,2013-03-05 11:27:00,
2013-03-05 06:28:00,61.9,55.3,30.14,ENE,58,3.0,7.0,79,0.00,,FEW,0.00,0.00,VWS V14.01,2013-03-05 11:28:00,
2013-03-05 06:29:00,61.9,55.3,30.14,NE,36,1.0,7.0,79,0.00,,FEW,0.00,0.00,VWS V14.01,2013-03-05 11:29:00,
2013-03-05 06:32:00,61.9,55.7,30.14,ENE,67,4.0,4.0,80,0.00,,FEW,0.00,0.00,VWS V14.01,2013-03-05 11:32:00,
2013-03-05 06:33:00,61.9,55.7,30.14,NE,39,4.0,5.0,80,0.00,,FEW,0.00,0.00,VWS V14.01,2013-03-05 11:33:00,
2013-03-05 06:34:00,61.9,55.7,30.14,NNE,26,4.0,5.0,80,0.00,,FEW,0.00,0.00,VWS V14.01,2013-03-05 11:34:00,
2013-03-05 06:37:00,62.0,55.8,30.14,NE,50,3.0,7.0,80,0.00,,FEW,0.00,0.00,VWS V14.01,2013-03-05 11:37:00,
2013-03-05 06:38:00,62.0,55.8,30.14,NE,40,3.0,7.0,80,0.00,,FEW,0.00,0.00,VWS V14.01,2013-03-05 11:38:00,
2013-03-05 06:39:00,62.0,55.8,30.14,NE,43,2.0,7.0,80,0.00,,FEW,0.00,0.00,VWS V14.01,2013-03-05 11:39:00,
2013-03-05 06:42:00,61.9,55.7,30.14,NNE,19,2.0,2.0,80,0.00,,FEW,0.00,0.00,VWS V14.01,2013-03-05 11:42:00,
2013-03-05 06:43:00,61.9,55.7,30.14,NNE,19,1.0,3.0,80,0.00,,FEW,0.00,5.00,VWS V14.01,2013-03-05 11:43:00,
2013-03-05 06:44:00,61.9,55.7,30.14,ENE,66,2.0,4.0,80,0.00,,FEW,0.00,5.00,VWS V14.01,2013-03-05 11:44:00,
2013-03-05 06:48:00,61.9,56.0,30.14,NE,42,3.0,5.0,81,0.00,,FEW,0.00,7.00,VWS V14.01,2013-03-05 11:48:00,
2013-03-05 06:49:00,61.9,56.0,30.14,NE,42,2.0,6.0,81,0.00,,FEW,0.00,7.00,VWS V14.01,2013-03-05 11:49:00,
2013-03-05 06:53:00,62.0,56.1,30.14,NE,49,2.0,4.0,81,0.00,,FEW,0.00,9.00,VWS V14.01,2013-03-05 11:53:00,
2013-03-05 06:54:00,62.0,56.1,30.14,NE,36,2.0,4.0,81,0.00,,FEW,0.00,11.00,VWS V14.01,2013-03-05 11:54:00,
2013-03-05 06:58:00,62.0,56.1,30.14,NE,36,1.0,4.0,81,0.00,,FEW,0.00,12.00,VWS V14.01,2013-03-05 11:58:00,
2013-03-05 06:59:00,61.9,56.0,30.14,ENE,78,3.0,4.0,81,0.00,,FEW,0.00,12.00,VWS V14.01,2013-03-05 11:59:00,
2013-03-05 07:03:00,61.9,56.3,30.14,NE,34,4.0,7.0,82,0.00,,FEW,0.00,16.00,VWS V14.01,2013-03-05 12:03:00,
2013-03-05 07:04:00,61.9,56.3,30.14,ENE,58,4.0,7.0,82,0.00,,FEW,0.00,16.00,VWS V14.01,2013-03-05 12:04:00,
2013-03-05 07:08:00,61.9,56.3,30.14,NNE,25,3.0,7.0,82,0.00,,FEW,0.00,18.00,VWS V14.01,2013-03-05 12:08:00,
2013-03-05 07:09:00,61.9,56.3,30.14,NE,38,3.0,7.0,82,0.00,,FEW,0.00,18.00,VWS V14.01,2013-03-05 12:09:00,
2013-03-05 07:13:00,62.0,56.8,30.14,NE,38,1.0,6.0,83,0.00,,FEW,0.00,25.00,VWS V14.01,2013-03-05 12:13:00,
2013-03-05 07:14:00,62.0,56.8,30.14,NE,38,2.0,6.0,83,0.00,,FEW,0.00,25.00,VWS V14.01,2013-03-05 12:14:00,
2013-03-05 07:18:00,62.0,56.8,30.14,NE,47,3.0,7.0,83,0.00,,FEW,0.00,53.00,VWS V14.01,2013-03-05 12:18:00,
2013-03-05 07:19:00,62.0,56.8,30.14,East,82,8.0,8.0,83,0.00,,FEW,0.00,65.00,VWS V14.01,2013-03-05 12:19:00,
2013-03-05 07:23:00,62.2,57.0,30.14,NNE,27,4.0,8.0,83,0.00,,FEW,0.00,70.00,VWS V14.01,2013-03-05 12:23:00,
2013-03-05 07:24:00,62.2,57.0,30.14,ENE,58,7.0,8.0,83,0.00,,FEW,0.00,60.00,VWS V14.01,2013-03-05 12:24:00,
2013-03-05 07:25:00,62.2,57.0,30.14,NE,51,3.0,8.0,83,0.00,,FEW,0.00,60.00,VWS V14.01,2013-03-05 12:25:00,
2013-03-05 07:28:00,62.3,57.1,30.14,NE,55,6.0,8.0,83,0.00,,FEW,0.00,93.00,VWS V14.01,2013-03-05 12:28:00,
2013-03-05 07:29:00,62.4,57.2,30.14,NE,40,4.0,8.0,83,0.00,,FEW,0.00,100.00,VWS V14.01,2013-03-05 12:29:00,
2013-03-05 07:30:00,62.4,57.2,30.14,NE,54,5.0,8.0,83,0.00,,FEW,0.00,100.00,VWS V14.01,2013-03-05 12:30:00,
2013-03-05 07:34:00,62.6,57.4,30.14,NE,50,7.0,7.0,83,0.00,,FEW,0.00,107.00,VWS V14.01,2013-03-05 12:34:00,
2013-03-05 07:35:00,62.6,57.4,30.14,NNE,30,3.0,7.0,83,0.00,,FEW,0.00,100.00,VWS V14.01,2013-03-05 12:35:00,
2013-03-05 07:39:00,62.7,57.5,30.14,ENE,59,2.0,9.0,83,0.00,,FEW,0.00,151.00,VWS V14.01,2013-03-05 12:39:00,
2013-03-05 07:41:00,62.8,57.6,30.14,NNE,30,3.0,9.0,83,0.00,,FEW,0.00,123.00,VWS V14.01,2013-03-05 12:41:00,
2013-03-05 07:44:00,63.0,57.8,30.14,NE,39,5.0,7.0,83,0.00,,FEW,0.00,167.00,VWS V14.01,2013-03-05 12:44:00,
2013-03-05 07:46:00,63.0,57.8,30.15,NE,48,2.0,7.0,83,0.00,,FEW,0.00,47.00,VWS V14.01,2013-03-05 12:46:00,
2013-03-05 07:49:00,63.2,58.0,30.15,NE,55,4.0,9.0,83,0.00,,FEW,0.00,169.00,VWS V14.01,2013-03-05 12:49:00,
2013-03-05 07:51:00,63.3,58.1,30.15,ENE,76,8.0,9.0,83,0.00,,FEW,0.00,118.00,VWS V14.01,2013-03-05 12:51:00,
2013-03-05 07:54:00,63.4,58.2,30.15,NNE,16,6.0,8.0,83,0.00,,FEW,0.00,162.00,VWS V14.01,2013-03-05 12:54:00,
2013-03-05 07:55:00,63.4,58.2,30.15,NE,38,3.0,8.0,83,0.00,,FEW,0.00,190.00,VWS V14.01,2013-03-05 12:55:00,
2013-03-05 07:56:00,63.4,57.8,30.15,North,10,6.0,8.0,82,0.00,,FEW,0.00,183.00,VWS V14.01,2013-03-05 12:56:00,
2013-03-05 07:59:00,63.5,57.9,30.15,NNE,28,3.0,9.0,82,0.00,,FEW,0.00,218.00,VWS V14.01,2013-03-05 12:59:00,
2013-03-05 08:00:00,63.4,57.8,30.15,NNE,24,2.0,9.0,82,0.00,,FEW,0.00,221.00,VWS V14.01,2013-03-05 13:00:00,
2013-03-05 08:01:00,63.5,57.9,30.15,NNE,28,5.0,9.0,82,0.00,,FEW,0.00,213.00,VWS V14.01,2013-03-05 13:01:00,
2013-03-05 08:05:00,63.6,58.0,30.15,North,5,5.0,9.0,82,0.00,,FEW,0.00,250.00,VWS V14.01,2013-03-05 13:05:00,
2013-03-05 08:06:00,63.7,58.1,30.15,NE,34,9.0,9.0,82,0.00,,FEW,0.00,257.00,VWS V14.01,2013-03-05 13:06:00,
2013-03-05 08:10:00,63.7,57.8,30.15,NE,41,3.0,9.0,81,0.00,,FEW,0.00,264.00,VWS V14.01,2013-03-05 13:10:00,
2013-03-05 08:12:00,63.8,57.9,30.15,NNE,22,3.0,4.0,81,0.00,,FEW,0.00,278.00,VWS V14.01,2013-03-05 13:12:00,
2013-03-05 08:15:00,63.9,58.0,30.15,NNE,27,4.0,6.0,81,0.00,,FEW,0.00,292.00,VWS V14.01,2013-03-05 13:15:00,
2013-03-05 08:17:00,64.0,58.1,30.15,NNE,31,6.0,9.0,81,0.00,,FEW,0.00,295.00,VWS V14.01,2013-03-05 13:17:00,
2013-03-05 08:20:00,64.1,58.2,30.15,NE,47,5.0,9.0,81,0.00,,FEW,0.00,309.00,VWS V14.01,2013-03-05 13:20:00,
2013-03-05 08:22:00,64.1,58.2,30.15,NE,43,7.0,8.0,81,0.00,,FEW,0.00,302.00,VWS V14.01,2013-03-05 13:22:00,
2013-03-05 08:25:00,64.2,58.3,30.15,NE,42,4.0,8.0,81,0.00,,FEW,0.00,330.00,VWS V14.01,2013-03-05 13:25:00,
2013-03-05 08:26:00,64.2,58.3,30.15,NE,47,6.0,8.0,81,0.00,,FEW,0.00,336.00,VWS V14.01,2013-03-05 13:26:00,
2013-03-05 08:27:00,64.3,58.3,30.15,NNE,32,6.0,8.0,81,0.00,,FEW,0.00,339.00,VWS V14.01,2013-03-05 13:27:00,
2013-03-05 08:30:00,64.4,58.1,30.15,NNE,31,4.0,8.0,80,0.00,,FEW,0.00,348.00,VWS V14.01,2013-03-05 13:30:00,
2013-03-05 08:31:00,64.4,58.1,30.16,NE,36,3.0,8.0,80,0.00,,FEW,0.00,355.00,VWS V14.01,2013-03-05 13:31:00,
2013-03-05 08:33:00,64.5,58.2,30.16,NE,47,5.0,7.0,80,0.00,,FEW,0.00,359.00,VWS V14.01,2013-03-05 13:33:00,
2013-03-05 08:35:00,64.7,58.4,30.16,NNE,28,3.0,7.0,80,0.00,,FEW,0.00,371.00,VWS V14.01,2013-03-05 13:35:00,
2013-03-05 08:36:00,64.7,58.4,30.16,NE,45,2.0,8.0,80,0.00,,FEW,0.00,373.00,VWS V14.01,2013-03-05 13:36:00,
2013-03-05 08:38:00,64.8,58.5,30.16,NE,52,3.0,8.0,80,0.00,,FEW,0.00,376.00,VWS V14.01,2013-03-05 13:38:00,
2013-03-05 08:40:00,65.0,58.7,30.16,ENE,59,5.0,8.0,80,0.00,,FEW,0.00,388.00,VWS V14.01,2013-03-05 13:40:00,
2013-03-05 08:41:00,65.0,58.7,30.16,NE,40,2.0,8.0,80,0.00,,FEW,0.00,390.00,VWS V14.01,2013-03-05 13:41:00,
2013-03-05 08:43:00,65.2,58.9,30.16,NE,41,5.0,6.0,80,0.00,,FEW,0.00,397.00,VWS V14.01,2013-03-05 13:43:00,
2013-03-05 08:45:00,65.4,59.1,30.16,NNE,31,4.0,6.0,80,0.00,,FEW,0.00,404.00,VWS V14.01,2013-03-05 13:45:00,
2013-03-05 08:46:00,65.4,59.1,30.16,NE,37,3.0,10.0,80,0.00,,FEW,0.00,410.00,VWS V14.01,2013-03-05 13:46:00,
2013-03-05 08:48:00,65.6,59.3,30.16,NNE,28,5.0,10.0,80,0.00,,FEW,0.00,415.00,VWS V14.01,2013-03-05 13:48:00,
2013-03-05 08:50:00,65.6,58.9,30.16,NE,40,3.0,10.0,79,0.00,,FEW,0.00,427.00,VWS V14.01,2013-03-05 13:50:00,
2013-03-05 08:51:00,65.6,58.9,30.16,ENE,59,7.0,10.0,79,0.00,,FEW,0.00,431.00,VWS V14.01,2013-03-05 13:51:00,
2013-03-05 08:53:00,65.7,59.4,30.16,NE,46,9.0,9.0,80,0.00,,FEW,0.00,434.00,VWS V14.01,2013-03-05 13:53:00,
2013-03-05 08:55:00,65.7,59.0,30.16,NE,43,1.0,9.0,79,0.00,,FEW,0.00,445.00,VWS V14.01,2013-03-05 13:55:00,
2013-03-05 08:56:00,65.7,59.0,30.16,NNE,21,4.0,9.0,79,0.00,,FEW,0.00,445.00,VWS V14.01,2013-03-05 13:56:00,
2013-03-05 08:59:00,65.9,59.2,30.16,NNE,28,8.0,9.0,79,0.00,,FEW,0.00,457.00,VWS V14.01,2013-03-05 13:59:00,
2013-03-05 09:00:00,65.9,59.2,30.16,NE,43,7.0,9.0,79,0.00,,FEW,0.00,464.00,VWS V14.01,2013-03-05 14:00:00,
2013-03-05 09:01:00,65.9,59.2,30.16,NE,36,6.0,9.0,79,0.00,,FEW,0.00,464.00,VWS V14.01,2013-03-05 14:01:00,
2013-03-05 09:04:00,65.9,59.2,30.16,NE,40,6.0,9.0,79,0.00,,FEW,0.00,478.00,VWS V14.01,2013-03-05 14:04:00,
2013-03-05 09:05:00,65.9,59.2,30.16,NNE,26,3.0,9.0,79,0.00,,FEW,0.00,480.00,VWS V14.01,2013-03-05 14:05:00,
2013-03-05 09:06:00,65.9,59.2,30.16,East,84,3.0,9.0,79,0.00,,FEW,0.00,483.00,VWS V14.01,2013-03-05 14:06:00,
2013-03-05 09:09:00,66.0,59.3,30.16,NNE,28,4.0,9.0,79,0.00,,FEW,0.00,494.00,VWS V14.01,2013-03-05 14:09:00,
2013-03-05 09:10:00,66.1,59.4,30.16,NE,51,3.0,9.0,79,0.00,,FEW,0.00,499.00,VWS V14.01,2013-03-05 14:10:00,
2013-03-05 09:11:00,66.1,59.4,30.16,ENE,58,5.0,9.0,79,0.00,,FEW,0.00,499.00,VWS V14.01,2013-03-05 14:11:00,
2013-03-05 09:14:00,66.1,59.4,30.16,NE,34,4.0,9.0,79,0.00,,FEW,0.00,510.00,VWS V14.01,2013-03-05 14:14:00,
2013-03-05 09:16:00,66.2,59.5,30.16,ENE,69,3.0,9.0,79,0.00,,FEW,0.00,515.00,VWS V14.01,2013-03-05 14:16:00,
2013-03-05 09:19:00,66.4,59.7,30.16,NE,51,2.0,9.0,79,0.00,,FEW,0.00,526.00,VWS V14.01,2013-03-05 14:19:00,
2013-03-05 09:21:00,66.5,59.4,30.16,NNE,28,5.0,9.0,78,0.00,,FEW,0.00,531.00,VWS V14.01,2013-03-05 14:21:00,
2013-03-05 09:22:00,66.5,59.4,30.16,NE,46,6.0,6.0,78,0.00,,FEW,0.00,534.00,VWS V14.01,2013-03-05 14:22:00,
2013-03-05 09:24:00,66.6,59.5,30.16,NE,55,5.0,6.0,78,0.00,,FEW,0.00,545.00,VWS V14.01,2013-03-05 14:24:00,
2013-03-05 09:26:00,66.6,59.5,30.16,NE,47,2.0,9.0,78,0.00,,FEW,0.00,548.00,VWS V14.01,2013-03-05 14:26:00,
2013-03-05 09:27:00,66.6,59.5,30.16,NNE,13,9.0,10.0,78,0.00,,FEW,0.00,554.00,VWS V14.01,2013-03-05 14:27:00,
2013-03-05 09:29:00,66.7,59.6,30.16,NE,36,5.0,10.0,78,0.00,,FEW,0.00,561.00,VWS V14.01,2013-03-05 14:29:00,
2013-03-05 09:31:00,66.8,59.7,30.16,NNE,26,7.0,10.0,78,0.00,,FEW,0.00,568.00,VWS V14.01,2013-03-05 14:31:00,
2013-03-05 09:32:00,66.9,59.8,30.16,ENE,57,9.0,9.0,78,0.00,,FEW,0.00,571.00,VWS V14.01,2013-03-05 14:32:00,
2013-03-05 09:34:00,67.1,60.0,30.16,NE,40,5.0,9.0,78,0.00,,FEW,0.00,575.00,VWS V14.01,2013-03-05 14:34:00,
2013-03-05 09:36:00,67.1,59.7,30.16,NNE,32,4.0,9.0,77,0.00,,FEW,0.00,582.00,VWS V14.01,2013-03-05 14:36:00,
2013-03-05 09:37:00,67.2,59.8,30.16,NE,36,5.0,9.0,77,0.00,,FEW,0.00,585.00,VWS V14.01,2013-03-05 14:37:00,
2013-03-05 09:39:00,67.2,60.1,30.16,NE,51,2.0,9.0,78,0.00,,FEW,0.00,591.00,VWS V14.01,2013-03-05 14:39:00,
2013-03-05 09:41:00,67.3,60.2,30.16,NE,53,7.0,9.0,78,0.00,,FEW,0.00,596.00,VWS V14.01,2013-03-05 14:41:00,
2013-03-05 09:42:00,67.4,60.3,30.16,NE,44,1.0,2.0,78,0.00,,FEW,0.00,599.00,VWS V14.01,2013-03-05 14:42:00,
2013-03-05 09:44:00,67.5,60.0,30.16,NE,37,2.0,8.0,77,0.00,,FEW,0.00,610.00,VWS V14.01,2013-03-05 14:44:00,
2013-03-05 09:46:00,67.6,60.5,30.16,NNE,24,7.0,8.0,78,0.00,,FEW,0.00,615.00,VWS V14.01,2013-03-05 14:46:00,
2013-03-05 09:47:00,67.6,60.1,30.16,NNE,28,5.0,8.0,77,0.00,,FEW,0.00,615.00,VWS V14.01,2013-03-05 14:47:00,
2013-03-05 09:50:00,67.8,60.3,30.16,NE,37,6.0,8.0,77,0.00,,FEW,0.00,624.00,VWS V14.01,2013-03-05 14:50:00,
2013-03-05 09:51:00,67.9,60.4,30.16,NE,44,1.0,8.0,77,0.00,,FEW,0.00,629.00,VWS V14.01,2013-03-05 14:51:00,
2013-03-05 09:52:00,68.0,60.5,30.16,NE,37,4.0,5.0,77,0.00,,FEW,0.00,635.00,VWS V14.01,2013-03-05 14:52:00,
2013-03-05 09:55:00,68.2,60.7,30.16,NE,43,3.0,6.0,77,0.00,,FEW,0.00,643.00,VWS V14.01,2013-03-05 14:55:00,
2013-03-05 09:56:00,68.2,60.7,30.16,NE,43,1.0,6.0,77,0.00,,FEW,0.00,645.00,VWS V14.01,2013-03-05 14:56:00,
2013-03-05 09:57:00,68.3,60.8,30.16,NE,38,6.0,7.0,77,0.00,,FEW,0.00,647.00,VWS V14.01,2013-03-05 14:57:00,
2013-03-05 10:00:00,68.6,60.7,30.16,NE,46,5.0,7.0,76,0.00,,FEW,0.00,657.00,VWS V14.01,2013-03-05 15:00:00,
2013-03-05 10:01:00,68.8,60.9,30.16,NE,51,4.0,7.0,76,0.00,,FEW,0.00,663.00,VWS V14.01,2013-03-05 15:01:00,
2013-03-05 10:02:00,68.8,60.9,30.16,NE,42,1.0,3.0,76,0.00,,FEW,0.00,663.00,VWS V14.01,2013-03-05 15:02:00,
2013-03-05 10:05:00,68.9,61.0,30.16,NE,38,0.0,6.0,76,0.00,,FEW,0.00,673.00,VWS V14.01,2013-03-05 15:05:00,
2013-03-05 10:06:00,69.1,61.2,30.16,NE,47,1.0,6.0,76,0.00,,FEW,0.00,679.00,VWS V14.01,2013-03-05 15:06:00,
2013-03-05 10:07:00,69.4,61.5,30.16,NE,41,2.0,6.0,76,0.00,,FEW,0.00,682.00,VWS V14.01,2013-03-05 15:07:00,
2013-03-05 10:08:00,69.5,61.6,30.16,ENE,68,2.0,6.0,76,0.00,,FEW,0.00,682.00,VWS V14.01,2013-03-05 15:08:00,
2013-03-05 10:10:00,70.3,60.9,30.16,East,91,3.0,6.0,72,0.00,,FEW,0.00,689.00,VWS V14.01,2013-03-05 15:10:00,
2013-03-05 10:11:00,70.7,60.5,30.16,East,80,1.0,6.0,70,0.00,,FEW,0.00,694.00,VWS V14.01,2013-03-05 15:11:00,
2013-03-05 10:12:00,71.1,60.8,30.16,East,94,2.0,2.0,70,0.00,,FEW,0.00,696.00,VWS V14.01,2013-03-05 15:12:00,
2013-03-05 10:13:00,71.2,60.9,30.16,East,96,1.0,2.0,70,0.00,,FEW,0.00,698.00,VWS V14.01,2013-03-05 15:13:00,
2013-03-05 10:15:00,71.8,60.3,30.16,East,101,1.0,4.0,67,0.00,,FEW,0.00,701.00,VWS V14.01,2013-03-05 15:15:00,
2013-03-05 10:17:00,72.3,60.7,30.16,ENE,74,1.0,4.0,67,0.00,,FEW,0.00,708.00,VWS V14.01,2013-03-05 15:17:00,
2013-03-05 10:18:00,72.7,60.7,30.16,East,97,2.0,4.0,66,0.00,,FEW,0.00,712.00,VWS V14.01,2013-03-05 15:18:00,
2013-03-05 10:21:00,72.9,60.5,30.16,ENE,66,2.0,4.0,65,0.00,,FEW,0.00,719.00,VWS V14.01,2013-03-05 15:21:00,
2013-03-05 10:22:00,72.9,60.0,30.16,SE,128,1.0,2.0,64,0.00,,FEW,0.00,722.00,VWS V14.01,2013-03-05 15:22:00,
2013-03-05 10:23:00,72.9,59.6,30.16,East,86,2.0,5.0,63,0.00,,FEW,0.00,724.00,VWS V14.01,2013-03-05 15:23:00,
2013-03-05 10:26:00,72.8,59.9,30.16,East,101,1.0,5.0,64,0.00,,FEW,0.00,731.00,VWS V14.01,2013-03-05 15:26:00,
2013-03-05 10:27:00,72.9,60.0,30.16,SE,126,1.0,5.0,64,0.00,,FEW,0.00,733.00,VWS V14.01,2013-03-05 15:27:00,
2013-03-05 10:28:00,73.1,60.2,30.16,East,95,3.0,5.0,64,0.00,,FEW,0.00,738.00,VWS V14.01,2013-03-05 15:28:00,
2013-03-05 10:31:00,73.3,60.4,30.16,East,80,2.0,5.0,64,0.00,,FEW,0.00,745.00,VWS V14.01,2013-03-05 15:31:00,
2013-03-05 10:32:00,73.4,60.5,30.16,ENE,67,2.0,2.0,64,0.00,,FEW,0.00,745.00,VWS V14.01,2013-03-05 15:32:00,
2013-03-05 10:33:00,73.3,60.0,30.16,East,93,1.0,5.0,63,0.00,,FEW,0.00,751.00,VWS V14.01,2013-03-05 15:33:00,
2013-03-05 10:36:00,73.3,60.4,30.16,ESE,107,2.0,5.0,64,0.00,,FEW,0.00,754.00,VWS V14.01,2013-03-05 15:36:00,
2013-03-05 10:37:00,73.4,60.5,30.16,ENE,74,2.0,7.0,64,0.00,,FEW,0.00,759.00,VWS V14.01,2013-03-05 15:37:00,
2013-03-05 10:38:00,73.5,60.2,30.16,SE,130,2.0,7.0,63,0.00,,FEW,0.00,761.00,VWS V14.01,2013-03-05 15:38:00,
2013-03-05 10:39:00,73.6,59.3,30.16,East,81,1.0,7.0,61,0.00,,FEW,0.00,761.00,VWS V14.01,2013-03-05 15:39:00,
2013-03-05 10:41:00,73.7,59.4,30.16,ENE,67,4.0,7.0,61,0.00,,FEW,0.00,766.00,VWS V14.01,2013-03-05 15:41:00,
2013-03-05 10:42:00,73.9,59.6,30.16,ESE,102,2.0,2.0,61,0.00,,FEW,0.00,772.00,VWS V14.01,2013-03-05 15:42:00,
2013-03-05 10:43:00,74.0,59.7,30.16,East,101,3.0,4.0,61,0.00,,FEW,0.00,772.00,VWS V14.01,2013-03-05 15:43:00,
2013-03-05 10:44:00,74.0,59.7,30.16,ESE,117,3.0,7.0,61,0.00,,FEW,0.00,775.00,VWS V14.01,2013-03-05 15:44:00,
2013-03-05 10:46:00,74.1,59.8,30.15,ESE,122,2.0,7.0,61,0.00,,FEW,0.00,777.00,VWS V14.01,2013-03-05 15:46:00,
2013-03-05 10:47:00,74.0,59.2,30.15,SE,125,3.0,11.0,60,0.00,,FEW,0.00,782.00,VWS V14.01,2013-03-05 15:47:00,
2013-03-05 10:48:00,73.9,58.2,30.15,South,169,4.0,11.0,58,0.00,,FEW,0.00,784.00,VWS V14.01,2013-03-05 15:48:00,
2013-03-05 10:49:00,73.8,58.1,30.15,ESE,121,5.0,11.0,58,0.00,,FEW,0.00,782.00,VWS V14.01,2013-03-05 15:49:00,
2013-03-05 10:51:00,73.7,58.5,30.15,SSE,165,5.0,11.0,59,0.00,,FEW,0.00,791.00,VWS V14.01,2013-03-05 15:51:00,
2013-03-05 10:52:00,73.7,58.5,30.15,SE,146,6.0,9.0,59,0.00,,FEW,0.00,791.00,VWS V14.01,2013-03-05 15:52:00,
2013-03-05 10:53:00,73.7,58.5,30.15,SSE,162,5.0,9.0,59,0.00,,FEW,0.00,795.00,VWS V14.01,2013-03-05 15:53:00,
2013-03-05 10:54:00,73.8,59.1,30.15,SE,143,7.0,9.0,60,0.00,,FEW,0.00,795.00,VWS V14.01,2013-03-05 15:54:00,
2013-03-05 10:56:00,73.7,58.5,30.15,SE,146,7.0,9.0,59,0.00,,FEW,0.00,800.00,VWS V14.01,2013-03-05 15:56:00,
2013-03-05 10:57:00,73.7,58.5,30.15,SSE,152,3.0,9.0,59,0.00,,FEW,0.00,802.00,VWS V14.01,2013-03-05 15:57:00,
2013-03-05 10:58:00,73.5,58.3,30.15,SE,145,6.0,9.0,59,0.00,,FEW,0.00,805.00,VWS V14.01,2013-03-05 15:58:00,
2013-03-05 10:59:00,73.5,58.3,30.15,ESE,105,3.0,9.0,59,0.00,,FEW,0.00,805.00,VWS V14.01,2013-03-05 15:59:00,
2013-03-05 11:01:00,73.5,58.3,30.15,SE,142,7.0,9.0,59,0.00,,FEW,0.00,807.00,VWS V14.01,2013-03-05 16:01:00,
2013-03-05 11:02:00,73.5,58.3,30.15,ESE,112,2.0,7.0,59,0.00,,FEW,0.00,810.00,VWS V14.01,2013-03-05 16:02:00,
2013-03-05 11:03:00,73.5,58.3,30.15,ESE,121,7.0,8.0,59,0.00,,FEW,0.00,814.00,VWS V14.01,2013-03-05 16:03:00,
2013-03-05 11:04:00,73.5,58.3,30.15,ESE,109,8.0,10.0,59,0.00,,FEW,0.00,816.00,VWS V14.01,2013-03-05 16:04:00,
2013-03-05 11:06:00,73.5,58.8,30.15,SE,128,5.0,10.0,60,0.00,,FEW,0.00,821.00,VWS V14.01,2013-03-05 16:06:00,
2013-03-05 11:07:00,73.5,58.3,30.15,SE,142,7.0,10.0,59,0.00,,FEW,0.00,824.00,VWS V14.01,2013-03-05 16:07:00,
2013-03-05 11:08:00,73.5,58.3,30.15,SSE,147,4.0,10.0,59,0.00,,FEW,0.00,824.00,VWS V14.01,2013-03-05 16:08:00,
2013-03-05 11:09:00,73.6,58.4,30.15,SSE,167,5.0,10.0,59,0.00,,FEW,0.00,823.00,VWS V14.01,2013-03-05 16:09:00,
2013-03-05 11:11:00,73.8,58.6,30.15,SE,136,4.0,10.0,59,0.00,,FEW,0.00,831.00,VWS V14.01,2013-03-05 16:11:00,
2013-03-05 11:13:00,73.9,58.7,30.15,ESE,111,7.0,7.0,59,0.00,,FEW,0.00,835.00,VWS V14.01,2013-03-05 16:13:00,
2013-03-05 11:14:00,73.8,58.6,30.15,ESE,113,4.0,9.0,59,0.00,,FEW,0.00,837.00,VWS V14.01,2013-03-05 16:14:00,
2013-03-05 11:16:00,73.7,58.0,30.14,SE,136,4.0,10.0,58,0.00,,FEW,0.00,851.00,VWS V14.01,2013-03-05 16:16:00,
2013-03-05 11:18:00,73.6,58.4,30.14,SE,130,2.0,10.0,59,0.00,,FEW,0.00,851.00,VWS V14.01,2013-03-05 16:18:00,
2013-03-05 11:19:00,73.7,59.0,30.14,ESE,121,1.0,11.0,60,0.00,,FEW,0.00,851.00,VWS V14.01,2013-03-05 16:19:00,
2013-03-05 11:22:00,73.9,59.2,30.14,ESE,117,4.0,4.0,60,0.00,,FEW,0.00,849.00,VWS V14.01,2013-03-05 16:22:00,
2013-03-05 11:23:00,73.9,59.2,30.14,SE,142,8.0,9.0,60,0.00,,FEW,0.00,853.00,VWS V14.01,2013-03-05 16:23:00,
2013-03-05 11:24:00,73.9,59.2,30.14,ESE,119,3.0,9.0,60,0.00,,FEW,0.00,853.00,VWS V14.01,2013-03-05 16:24:00,
2013-03-05 11:25:00,73.8,58.6,30.14,SE,144,4.0,9.0,59,0.00,,FEW,0.00,853.00,VWS V14.01,2013-03-05 16:25:00,
2013-03-05 11:27:00,73.6,57.9,30.14,ESE,102,3.0,10.0,58,0.00,,FEW,0.00,851.00,VWS V14.01,2013-03-05 16:27:00,
2013-03-05 11:28:00,73.5,58.3,30.14,SSE,160,7.0,10.0,59,0.00,,FEW,0.00,856.00,VWS V14.01,2013-03-05 16:28:00,
2013-03-05 11:29:00,73.5,58.3,30.14,ESE,114,3.0,13.0,59,0.00,,FEW,0.00,856.00,VWS V14.01,2013-03-05 16:29:00,
2013-03-05 11:30:00,73.6,58.4,30.14,SSE,151,7.0,13.0,59,0.00,,FEW,0.00,858.00,VWS V14.01,2013-03-05 16:30:00,
2013-03-05 11:32:00,73.6,57.9,30.14,SE,144,7.0,8.0,58,0.00,,FEW,0.00,856.00,VWS V14.01,2013-03-05 16:32:00,
2013-03-05 11:33:00,73.6,57.9,30.14,SE,137,2.0,8.0,58,0.00,,FEW,0.00,860.00,VWS V14.01,2013-03-05 16:33:00,
2013-03-05 11:34:00,73.6,57.9,30.14,SSE,148,5.0,8.0,58,0.00,,FEW,0.00,860.00,VWS V14.01,2013-03-05 16:34:00,
2013-03-05 11:35:00,73.6,57.9,30.14,SSE,151,6.0,8.0,58,0.00,,FEW,0.00,863.00,VWS V14.01,2013-03-05 16:35:00,
2013-03-05 11:37:00,73.6,57.9,30.14,ESE,115,5.0,9.0,58,0.00,,FEW,0.00,867.00,VWS V14.01,2013-03-05 16:37:00,
2013-03-05 11:39:00,73.8,58.1,30.14,SE,141,6.0,11.0,58,0.00,,FEW,0.00,867.00,VWS V14.01,2013-03-05 16:39:00,
2013-03-05 11:40:00,73.8,58.1,30.14,SE,126,5.0,11.0,58,0.00,,FEW,0.00,872.00,VWS V14.01,2013-03-05 16:40:00,
2013-03-05 11:42:00,73.7,58.0,30.14,ESE,119,9.0,9.0,58,0.00,,FEW,0.00,868.00,VWS V14.01,2013-03-05 16:42:00,
2013-03-05 11:44:00,73.8,58.6,30.14,SE,128,7.0,9.0,59,0.00,,FEW,0.00,875.00,VWS V14.01,2013-03-05 16:44:00,
2013-03-05 11:45:00,73.8,58.1,30.14,SSE,150,5.0,11.0,58,0.00,,FEW,0.00,875.00,VWS V14.01,2013-03-05 16:45:00,
2013-03-05 11:47:00,73.9,58.7,30.14,ESE,122,4.0,11.0,59,0.00,,FEW,0.00,877.00,VWS V14.01,2013-03-05 16:47:00,
2013-03-05 11:49:00,73.8,58.1,30.14,ESE,118,4.0,11.0,58,0.00,,FEW,0.00,881.00,VWS V14.01,2013-03-05 16:49:00,
2013-03-05 11:50:00,73.8,58.1,30.14,SE,146,4.0,11.0,58,0.00,,FEW,0.00,882.00,VWS V14.01,2013-03-05 16:50:00,
2013-03-05 11:52:00,73.9,58.7,30.14,SE,134,7.0,7.0,59,0.00,,FEW,0.00,884.00,VWS V14.01,2013-03-05 16:52:00,
2013-03-05 11:54:00,73.9,58.7,30.14,East,89,6.0,9.0,59,0.00,,FEW,0.00,889.00,VWS V14.01,2013-03-05 16:54:00,
2013-03-05 11:55:00,74.0,58.8,30.14,East,85,6.0,9.0,59,0.00,,FEW,0.00,888.00,VWS V14.01,2013-03-05 16:55:00,
2013-03-05 11:57:00,74.4,59.2,30.14,East,89,3.0,9.0,59,0.00,,FEW,0.00,891.00,VWS V14.01,2013-03-05 16:57:00,
2013-03-05 11:59:00,74.5,58.8,30.14,ESE,109,10.0,10.0,58,0.00,,FEW,0.00,889.00,VWS V14.01,2013-03-05 16:59:00,
2013-03-05 12:00:00,74.6,58.9,30.14,SE,141,2.0,10.0,58,0.00,,FEW,0.00,891.00,VWS V14.01,2013-03-05 17:00:00,
2013-03-05 12:02:00,74.6,58.9,30.13,SE,145,7.0,9.0,58,0.00,,FEW,0.00,896.00,VWS V14.01,2013-03-05 17:02:00,
2013-03-05 12:04:00,74.4,58.2,30.13,ESE,114,4.0,10.0,57,0.00,,FEW,0.00,898.00,VWS V14.01,2013-03-05 17:04:00,
2013-03-05 12:05:00,74.3,57.6,30.13,SE,140,3.0,10.0,56,0.00,,FEW,0.00,898.00,VWS V14.01,2013-03-05 17:05:00,
2013-03-05 12:07:00,74.1,57.9,30.13,SSE,149,3.0,10.0,57,0.00,,FEW,0.00,900.00,VWS V14.01,2013-03-05 17:07:00,
2013-03-05 12:09:00,74.0,57.8,30.13,SSE,168,5.0,10.0,57,0.00,,FEW,0.00,904.00,VWS V14.01,2013-03-05 17:09:00,
2013-03-05 12:10:00,74.1,57.9,30.13,SE,138,5.0,10.0,57,0.00,,FEW,0.00,902.00,VWS V14.01,2013-03-05 17:10:00,
2013-03-05 12:12:00,74.1,58.4,30.13,ESE,107,8.0,9.0,58,0.00,,FEW,0.00,902.00,VWS V14.01,2013-03-05 17:12:00,
2013-03-05 12:14:00,74.0,57.8,30.13,SE,146,10.0,10.0,57,0.00,,FEW,0.00,904.00,VWS V14.01,2013-03-05 17:14:00,
2013-03-05 12:15:00,74.0,57.8,30.13,SE,142,6.0,10.0,57,0.00,,FEW,0.00,905.00,VWS V14.01,2013-03-05 17:15:00,
2013-03-05 12:17:00,74.0,57.3,30.13,ESE,114,5.0,10.0,56,0.00,,FEW,0.00,904.00,VWS V14.01,2013-03-05 17:17:00,
2013-03-05 12:19:00,74.0,57.3,30.13,ESE,115,3.0,10.0,56,0.00,,FEW,0.00,905.00,VWS V14.01,2013-03-05 17:19:00,
2013-03-05 12:20:00,73.9,57.2,30.13,ESE,107,5.0,10.0,56,0.00,,FEW,0.00,905.00,VWS V14.01,2013-03-05 17:20:00,
2013-03-05 12:23:00,74.2,58.5,30.13,East,81,9.0,10.0,58,0.00,,FEW,0.00,905.00,VWS V14.01,2013-03-05 17:23:00,
2013-03-05 12:25:00,74.1,58.4,30.13,SSE,165,6.0,11.0,58,0.00,,FEW,0.00,907.00,VWS V14.01,2013-03-05 17:25:00,
2013-03-05 12:28:00,74.2,59.0,30.13,SE,146,5.0,11.0,59,0.00,,FEW,0.00,905.00,VWS V14.01,2013-03-05 17:28:00,
2013-03-05 12:29:00,74.1,58.9,30.13,SE,125,6.0,11.0,59,0.00,,FEW,0.00,905.00,VWS V14.01,2013-03-05 17:29:00,
2013-03-05 12:30:00,74.0,58.8,30.13,ESE,120,4.0,11.0,59,0.00,,FEW,0.00,905.00,VWS V14.01,2013-03-05 17:30:00,
2013-03-05 12:31:00,73.9,58.7,30.12,SSE,148,6.0,11.0,59,0.00,,FEW,0.00,905.00,VWS V14.01,2013-03-05 17:31:00,
2013-03-05 12:33:00,73.8,59.1,30.12,SE,140,5.0,6.0,60,0.00,,FEW,0.00,905.00,VWS V14.01,2013-03-05 17:33:00,
2013-03-05 12:34:00,73.8,59.1,30.12,East,84,5.0,8.0,60,0.00,,FEW,0.00,904.00,VWS V14.01,2013-03-05 17:34:00,
2013-03-05 12:35:00,73.8,59.1,30.12,ESE,109,5.0,8.0,60,0.00,,FEW,0.00,905.00,VWS V14.01,2013-03-05 17:35:00,
2013-03-05 12:36:00,73.9,59.2,30.12,SE,125,4.0,8.0,60,0.00,,FEW,0.00,907.00,VWS V14.01,2013-03-05 17:36:00,
2013-03-05 12:38:00,73.9,59.2,30.12,SE,126,4.0,9.0,60,0.00,,FEW,0.00,907.00,VWS V14.01,2013-03-05 17:38:00,
2013-03-05 12:40:00,73.9,59.2,30.12,SE,135,5.0,10.0,60,0.00,,FEW,0.00,905.00,VWS V14.01,2013-03-05 17:40:00,
2013-03-05 12:41:00,73.9,59.6,30.12,ESE,117,5.0,10.0,61,0.00,,FEW,0.00,905.00,VWS V14.01,2013-03-05 17:41:00,
2013-03-05 12:43:00,74.0,59.2,30.12,SE,137,8.0,9.0,60,0.00,,FEW,0.00,907.00,VWS V14.01,2013-03-05 17:43:00,
2013-03-05 12:45:00,74.1,59.8,30.12,ESE,115,4.0,9.0,61,0.00,,FEW,0.00,907.00,VWS V14.01,2013-03-05 17:45:00,
2013-03-05 12:46:00,74.3,59.5,30.12,SE,136,6.0,9.0,60,0.00,,FEW,0.00,907.00,VWS V14.01,2013-03-05 17:46:00,
2013-03-05 12:48:00,74.4,59.2,30.12,SE,144,4.0,9.0,59,0.00,,FEW,0.00,909.00,VWS V14.01,2013-03-05 17:48:00,
2013-03-05 12:50:00,74.3,58.6,30.12,SSE,163,3.0,9.0,58,0.00,,FEW,0.00,905.00,VWS V14.01,2013-03-05 17:50:00,
2013-03-05 12:51:00,74.3,58.1,30.12,ESE,103,5.0,9.0,57,0.00,,FEW,0.00,902.00,VWS V14.01,2013-03-05 17:51:00,
2013-03-05 12:53:00,74.2,59.4,30.12,ESE,114,5.0,10.0,60,0.00,,FEW,0.00,904.00,VWS V14.01,2013-03-05 17:53:00,
2013-03-05 12:55:00,74.3,60.0,30.12,ESE,123,4.0,10.0,61,0.00,,FEW,0.00,902.00,VWS V14.01,2013-03-05 17:55:00,
2013-03-05 12:56:00,74.5,60.2,30.12,SSE,150,6.0,10.0,61,0.00,,FEW,0.00,900.00,VWS V14.01,2013-03-05 17:56:00,
2013-03-05 12:58:00,74.6,60.3,30.12,ESE,103,4.0,10.0,61,0.00,,FEW,0.00,902.00,VWS V14.01,2013-03-05 17:58:00,
2013-03-05 13:00:00,74.5,59.7,30.12,SE,126,4.0,10.0,60,0.00,,FEW,0.00,902.00,VWS V14.01,2013-03-05 18:00:00,
2013-03-05 13:01:00,74.5,59.7,30.11,ESE,117,5.0,10.0,60,0.00,,FEW,0.00,900.00,VWS V14.01,2013-03-05 18:01:00,
2013-03-05 13:04:00,74.3,60.0,30.11,SE,140,7.0,11.0,61,0.00,,FEW,0.00,900.00,VWS V14.01,2013-03-05 18:04:00,
2013-03-05 13:05:00,74.3,60.5,30.11,SE,128,8.0,11.0,62,0.00,,FEW,0.00,898.00,VWS V14.01,2013-03-05 18:05:00,
2013-03-05 13:06:00,74.3,60.5,30.11,ESE,122,4.0,11.0,62,0.00,,FEW,0.00,893.00,VWS V14.01,2013-03-05 18:06:00,
2013-03-05 13:09:00,74.1,60.3,30.11,SSE,151,3.0,11.0,62,0.00,,FEW,0.00,902.00,VWS V14.01,2013-03-05 18:09:00,
2013-03-05 13:10:00,74.1,60.3,30.11,SE,141,4.0,11.0,62,0.00,,FEW,0.00,904.00,VWS V14.01,2013-03-05 18:10:00,
2013-03-05 13:12:00,74.0,59.7,30.11,SE,137,3.0,11.0,61,0.00,,FEW,0.00,907.00,VWS V14.01,2013-03-05 18:12:00,
2013-03-05 13:14:00,74.1,60.3,30.11,SE,138,4.0,9.0,62,0.00,,FEW,0.00,895.00,VWS V14.01,2013-03-05 18:14:00,
2013-03-05 13:15:00,74.2,60.4,30.11,ESE,120,4.0,12.0,62,0.00,,FEW,0.00,891.00,VWS V14.01,2013-03-05 18:15:00,
2013-03-05 13:17:00,74.2,59.9,30.11,SSE,152,7.0,12.0,61,0.00,,FEW,0.00,888.00,VWS V14.01,2013-03-05 18:17:00,
2013-03-05 13:19:00,74.0,59.7,30.11,ESE,123,3.0,12.0,61,0.00,,FEW,0.00,884.00,VWS V14.01,2013-03-05 18:19:00,
2013-03-05 13:20:00,74.1,59.8,30.11,SE,140,2.0,12.0,61,0.00,,FEW,0.00,882.00,VWS V14.01,2013-03-05 18:20:00,
2013-03-05 13:22:00,74.2,60.4,30.11,ESE,119,4.0,8.0,62,0.00,,FEW,0.00,884.00,VWS V14.01,2013-03-05 18:22:00,
2013-03-05 13:24:00,74.3,59.5,30.11,SSE,156,9.0,9.0,60,0.00,,FEW,0.00,884.00,VWS V14.01,2013-03-05 18:24:00,
2013-03-05 13:25:00,74.2,59.9,30.11,SE,125,6.0,9.0,61,0.00,,FEW,0.00,881.00,VWS V14.01,2013-03-05 18:25:00,
2013-03-05 13:26:00,74.2,59.9,30.11,SSE,151,5.0,9.0,61,0.00,,FEW,0.00,881.00,VWS V14.01,2013-03-05 18:26:00,
2013-03-05 13:27:00,74.1,59.8,30.11,SE,126,4.0,9.0,61,0.00,,FEW,0.00,881.00,VWS V14.01,2013-03-05 18:27:00,
2013-03-05 13:29:00,74.1,59.8,30.11,SE,142,8.0,9.0,61,0.00,,FEW,0.00,879.00,VWS V14.01,2013-03-05 18:29:00,
2013-03-05 13:31:00,74.0,59.7,30.11,SE,130,6.0,9.0,61,0.00,,FEW,0.00,875.00,VWS V14.01,2013-03-05 18:31:00,
2013-03-05 13:32:00,74.0,60.2,30.11,SSE,148,4.0,7.0,62,0.00,,FEW,0.00,872.00,VWS V14.01,2013-03-05 18:32:00,
2013-03-05 13:34:00,74.2,60.4,30.11,SSE,154,7.0,10.0,62,0.00,,FEW,0.00,872.00,VWS V14.01,2013-03-05 18:34:00,
2013-03-05 13:36:00,74.0,59.7,30.11,SE,124,7.0,10.0,61,0.00,,FEW,0.00,867.00,VWS V14.01,2013-03-05 18:36:00,
2013-03-05 13:37:00,74.0,59.7,30.11,SW,217,8.0,10.0,61,0.00,,FEW,0.00,867.00,VWS V14.01,2013-03-05 18:37:00,
2013-03-05 13:39:00,74.1,59.8,30.11,SE,144,5.0,10.0,61,0.00,,FEW,0.00,867.00,VWS V14.01,2013-03-05 18:39:00,
2013-03-05 13:41:00,74.3,59.5,30.11,SE,136,6.0,10.0,60,0.00,,FEW,0.00,858.00,VWS V14.01,2013-03-05 18:41:00,
2013-03-05 13:42:00,74.3,59.5,30.11,SE,125,5.0,8.0,60,0.00,,FEW,0.00,861.00,VWS V14.01,2013-03-05 18:42:00,
2013-03-05 13:44:00,74.3,60.0,30.11,SSE,157,4.0,9.0,61,0.00,,FEW,0.00,861.00,VWS V14.01,2013-03-05 18:44:00,
2013-03-05 13:46:00,74.4,60.5,30.10,SSE,151,4.0,9.0,62,0.00,,FEW,0.00,860.00,VWS V14.01,2013-03-05 18:46:00,
2013-03-05 13:47:00,74.6,59.8,30.10,SSE,165,6.0,9.0,60,0.00,,FEW,0.00,861.00,VWS V14.01,2013-03-05 18:47:00,
2013-03-05 13:49:00,74.5,59.2,30.10,ESE,103,3.0,9.0,59,0.00,,FEW,0.00,877.00,VWS V14.01,2013-03-05 18:49:00,
2013-03-05 13:51:00,74.5,60.2,30.10,SSE,161,8.0,9.0,61,0.00,,FEW,0.00,889.00,VWS V14.01,2013-03-05 18:51:00,
2013-03-05 13:52:00,74.6,60.3,30.10,SSE,161,7.0,7.0,61,0.00,,FEW,0.00,874.00,VWS V14.01,2013-03-05 18:52:00,
2013-03-05 13:54:00,74.6,60.3,30.10,SSE,165,5.0,12.0,61,0.00,,FEW,0.00,844.00,VWS V14.01,2013-03-05 18:54:00,
2013-03-05 13:56:00,74.5,59.7,30.10,SSE,166,5.0,12.0,60,0.00,,FEW,0.00,842.00,VWS V14.01,2013-03-05 18:56:00,
2013-03-05 13:57:00,74.4,59.6,30.10,East,84,6.0,12.0,60,0.00,,FEW,0.00,838.00,VWS V14.01,2013-03-05 18:57:00,
2013-03-05 14:00:00,74.2,59.4,30.10,SE,132,2.0,12.0,60,0.00,,FEW,0.00,833.00,VWS V14.01,2013-03-05 19:00:00,
2013-03-05 14:01:00,74.2,59.9,30.10,ESE,119,3.0,12.0,61,0.00,,FEW,0.00,835.00,VWS V14.01,2013-03-05 19:01:00,
2013-03-05 14:03:00,74.3,60.0,30.10,SE,127,5.0,10.0,61,0.00,,FEW,0.00,835.00,VWS V14.01,2013-03-05 19:03:00,
2013-03-05 14:05:00,74.3,58.6,30.10,SE,145,3.0,10.0,58,0.00,,FEW,0.00,824.00,VWS V14.01,2013-03-05 19:05:00,
2013-03-05 14:06:00,74.2,59.0,30.10,SE,132,4.0,10.0,59,0.00,,FEW,0.00,824.00,VWS V14.01,2013-03-05 19:06:00,
2013-03-05 14:08:00,74.2,59.4,30.10,ESE,117,7.0,10.0,60,0.00,,FEW,0.00,823.00,VWS V14.01,2013-03-05 19:08:00,
2013-03-05 14:10:00,74.4,59.6,30.10,SE,125,3.0,10.0,60,0.00,,FEW,0.00,824.00,VWS V14.01,2013-03-05 19:10:00,
2013-03-05 14:11:00,74.5,60.2,30.10,SSE,149,7.0,10.0,61,0.00,,FEW,0.00,819.00,VWS V14.01,2013-03-05 19:11:00,
2013-03-05 14:13:00,74.5,60.2,30.10,SE,135,5.0,8.0,61,0.00,,FEW,0.00,817.00,VWS V14.01,2013-03-05 19:13:00,
2013-03-05 14:15:00,74.4,59.6,30.10,ESE,110,5.0,9.0,60,0.00,,FEW,0.00,810.00,VWS V14.01,2013-03-05 19:15:00,
2013-03-05 14:16:00,74.4,59.6,30.09,SE,138,5.0,9.0,60,0.00,,FEW,0.00,802.00,VWS V14.01,2013-03-05 19:16:00,
2013-03-05 14:18:00,74.4,59.6,30.09,SE,130,4.0,10.0,60,0.00,,FEW,0.00,800.00,VWS V14.01,2013-03-05 19:18:00,
2013-03-05 14:20:00,74.5,60.2,30.09,South,173,8.0,10.0,61,0.00,,FEW,0.00,800.00,VWS V14.01,2013-03-05 19:20:00,
2013-03-05 14:21:00,74.4,60.1,30.09,South,171,9.0,10.0,61,0.00,,FEW,0.00,798.00,VWS V14.01,2013-03-05 19:21:00,
2013-03-05 14:23:00,74.4,59.2,30.09,SE,126,5.0,9.0,59,0.00,,FEW,0.00,789.00,VWS V14.01,2013-03-05 19:23:00,
2013-03-05 14:25:00,74.3,59.5,30.09,SE,142,3.0,9.0,60,0.00,,FEW,0.00,786.00,VWS V14.01,2013-03-05 19:25:00,
2013-03-05 14:26:00,74.4,59.6,30.09,SE,129,4.0,9.0,60,0.00,,FEW,0.00,784.00,VWS V14.01,2013-03-05 19:26:00,
2013-03-05 14:27:00,74.4,59.6,30.09,SSE,153,6.0,9.0,60,0.00,,FEW,0.00,784.00,VWS V14.01,2013-03-05 19:27:00,
2013-03-05 14:28:00,74.5,59.7,30.09,SE,144,5.0,9.0,60,0.00,,FEW,0.00,779.00,VWS V14.01,2013-03-05 19:28:00,
2013-03-05 14:30:00,74.5,60.2,30.09,South,173,6.0,9.0,61,0.00,,FEW,0.00,773.00,VWS V14.01,2013-03-05 19:30:00,
2013-03-05 14:32:00,74.5,60.2,30.09,SE,132,5.0,5.0,61,0.00,,FEW,0.00,777.00,VWS V14.01,2013-03-05 19:32:00,
2013-03-05 14:33:00,74.6,59.8,30.09,ESE,123,3.0,7.0,60,0.00,,FEW,0.00,772.00,VWS V14.01,2013-03-05 19:33:00,
2013-03-05 14:35:00,74.7,60.4,30.09,SE,142,6.0,7.0,61,0.00,,FEW,0.00,768.00,VWS V14.01,2013-03-05 19:35:00,
2013-03-05 14:37:00,74.8,60.0,30.09,SSE,151,7.0,8.0,60,0.00,,FEW,0.00,765.00,VWS V14.01,2013-03-05 19:37:00,
2013-03-05 14:38:00,74.6,59.8,30.09,South,174,3.0,8.0,60,0.00,,FEW,0.00,772.00,VWS V14.01,2013-03-05 19:38:00,
2013-03-05 14:40:00,74.5,59.7,30.09,ENE,61,4.0,8.0,60,0.00,,FEW,0.00,782.00,VWS V14.01,2013-03-05 19:40:00,
2013-03-05 14:42:00,74.5,60.2,30.09,SE,126,2.0,7.0,61,0.00,,FEW,0.00,824.00,VWS V14.01,2013-03-05 19:42:00,
2013-03-05 14:44:00,74.6,60.3,30.09,SE,134,4.0,7.0,61,0.00,,FEW,0.00,798.00,VWS V14.01,2013-03-05 19:44:00,
2013-03-05 14:45:00,74.9,61.0,30.09,East,80,2.0,7.0,62,0.00,,FEW,0.00,846.00,VWS V14.01,2013-03-05 19:45:00,
2013-03-05 14:47:00,75.4,61.0,30.09,SE,136,6.0,9.0,61,0.00,,FEW,0.00,673.00,VWS V14.01,2013-03-05 19:47:00,
2013-03-05 14:49:00,75.4,60.6,30.09,SE,136,4.0,9.0,60,0.00,,FEW,0.00,673.00,VWS V14.01,2013-03-05 19:49:00,
2013-03-05 14:51:00,75.3,60.5,30.09,SE,142,7.0,9.0,60,0.00,,FEW,0.00,803.00,VWS V14.01,2013-03-05 19:51:00,
2013-03-05 14:53:00,75.1,59.8,30.09,SE,138,6.0,7.0,59,0.00,,FEW,0.00,803.00,VWS V14.01,2013-03-05 19:53:00,
2013-03-05 14:54:00,74.9,60.1,30.09,SSE,149,4.0,7.0,60,0.00,,FEW,0.00,796.00,VWS V14.01,2013-03-05 19:54:00,
2013-03-05 14:56:00,75.1,60.8,30.09,SE,135,4.0,9.0,61,0.00,,FEW,0.00,831.00,VWS V14.01,2013-03-05 19:56:00,
2013-03-05 14:58:00,74.9,60.6,30.09,SE,136,5.0,9.0,61,0.00,,FEW,0.00,867.00,VWS V14.01,2013-03-05 19:58:00,
2013-03-05 14:59:00,74.8,60.5,30.09,SE,142,5.0,9.0,61,0.00,,FEW,0.00,867.00,VWS V14.01,2013-03-05 19:59:00,
2013-03-05 15:01:00,74.7,60.4,30.08,SE,134,4.0,9.0,61,0.00,,FEW,0.00,867.00,VWS V14.01,2013-03-05 20:01:00,
2013-03-05 15:03:00,74.6,60.3,30.08,ESE,106,1.0,7.0,61,0.00,,FEW,0.00,867.00,VWS V14.01,2013-03-05 20:03:00,
2013-03-05 15:04:00,74.8,60.5,30.08,ESE,113,8.0,8.0,61,0.00,,FEW,0.00,812.00,VWS V14.01,2013-03-05 20:04:00,
2013-03-05 15:06:00,75.0,60.7,30.08,ESE,123,7.0,8.0,61,0.00,,FEW,0.00,809.00,VWS V14.01,2013-03-05 20:06:00,
2013-03-05 15:08:00,75.0,60.7,30.08,SE,133,3.0,9.0,61,0.00,,FEW,0.00,809.00,VWS V14.01,2013-03-05 20:08:00,
2013-03-05 15:09:00,74.8,60.5,30.08,SE,142,5.0,9.0,61,0.00,,FEW,0.00,677.00,VWS V14.01,2013-03-05 20:09:00,
2013-03-05 15:11:00,74.5,59.7,30.08,SE,136,4.0,9.0,60,0.00,,FEW,0.00,758.00,VWS V14.01,2013-03-05 20:11:00,
2013-03-05 15:13:00,74.4,59.6,30.08,ESE,123,5.0,8.0,60,0.00,,FEW,0.00,684.00,VWS V14.01,2013-03-05 20:13:00,
2013-03-05 15:14:00,74.4,59.6,30.08,SE,138,3.0,8.0,60,0.00,,FEW,0.00,178.00,VWS V14.01,2013-03-05 20:14:00,
2013-03-05 15:17:00,74.3,60.0,30.08,SSE,158,3.0,8.0,61,0.00,,FEW,0.00,239.00,VWS V14.01,2013-03-05 20:17:00,
2013-03-05 15:18:00,74.1,59.3,30.08,ESE,123,2.0,9.0,60,0.00,,FEW,0.00,239.00,VWS V14.01,2013-03-05 20:18:00,
2013-03-05 15:19:00,73.9,59.2,30.08,SSE,153,4.0,9.0,60,0.00,,FEW,0.00,239.00,VWS V14.01,2013-03-05 20:19:00,
2013-03-05 15:22:00,73.8,59.5,30.08,SSE,150,6.0,6.0,61,0.00,,FEW,0.00,754.00,VWS V14.01,2013-03-05 20:22:00,
2013-03-05 15:23:00,73.9,59.6,30.08,SSE,148,6.0,7.0,61,0.00,,FEW,0.00,717.00,VWS V14.01,2013-03-05 20:23:00,
2013-03-05 15:24:00,73.9,59.6,30.08,SE,130,3.0,9.0,61,0.00,,FEW,0.00,717.00,VWS V14.01,2013-03-05 20:24:00,
2013-03-05 15:27:00,74.2,59.4,30.08,ESE,103,2.0,9.0,60,0.00,,FEW,0.00,652.00,VWS V14.01,2013-03-05 20:27:00,
2013-03-05 15:28:00,74.4,59.6,30.08,East,99,1.0,9.0,60,0.00,,FEW,0.00,640.00,VWS V14.01,2013-03-05 20:28:00,
2013-03-05 15:29:00,74.5,59.7,30.08,SSE,161,5.0,9.0,60,0.00,,FEW,0.00,640.00,VWS V14.01,2013-03-05 20:29:00,
2013-03-05 15:30:00,74.6,59.8,30.08,ESE,116,2.0,9.0,60,0.00,,FEW,0.00,633.00,VWS V14.01,2013-03-05 20:30:00,
2013-03-05 15:32:00,74.8,59.5,30.08,ESE,123,5.0,6.0,59,0.00,,FEW,0.00,640.00,VWS V14.01,2013-03-05 20:32:00,
2013-03-05 15:34:00,74.8,60.0,30.08,SE,146,2.0,6.0,60,0.00,,FEW,0.00,659.00,VWS V14.01,2013-03-05 20:34:00,
2013-03-05 15:35:00,74.8,59.5,30.08,ESE,115,1.0,6.0,59,0.00,,FEW,0.00,659.00,VWS V14.01,2013-03-05 20:35:00,
2013-03-05 15:37:00,74.8,59.5,30.08,SE,139,6.0,8.0,59,0.00,,FEW,0.00,308.00,VWS V14.01,2013-03-05 20:37:00,
2013-03-05 15:39:00,74.6,59.3,30.08,SSE,163,6.0,8.0,59,0.00,,FEW,0.00,308.00,VWS V14.01,2013-03-05 20:39:00,
2013-03-05 15:40:00,74.3,59.1,30.08,SE,136,3.0,8.0,59,0.00,,FEW,0.00,613.00,VWS V14.01,2013-03-05 20:40:00,
2013-03-05 15:42:00,74.5,59.7,30.08,ESE,121,2.0,4.0,60,0.00,,FEW,0.00,601.00,VWS V14.01,2013-03-05 20:42:00,
2013-03-05 15:44:00,74.8,60.0,30.08,ESE,116,1.0,4.0,60,0.00,,FEW,0.00,592.00,VWS V14.01,2013-03-05 20:44:00,
2013-03-05 15:45:00,75.1,59.8,30.08,East,80,1.0,4.0,59,0.00,,FEW,0.00,587.00,VWS V14.01,2013-03-05 20:45:00,
2013-03-05 15:47:00,75.2,59.4,30.08,SE,138,2.0,4.0,58,0.00,,FEW,0.00,582.00,VWS V14.01,2013-03-05 20:47:00,
2013-03-05 15:49:00,75.2,59.9,30.08,SE,127,3.0,5.0,59,0.00,,FEW,0.00,578.00,VWS V14.01,2013-03-05 20:49:00,
2013-03-05 15:50:00,74.9,59.1,30.08,ESE,123,5.0,5.0,58,0.00,,FEW,0.00,570.00,VWS V14.01,2013-03-05 20:50:00,
2013-03-05 15:53:00,74.6,58.9,30.08,ESE,123,2.0,7.0,58,0.00,,FEW,0.00,554.00,VWS V14.01,2013-03-05 20:53:00,
2013-03-05 15:54:00,74.3,58.1,30.08,SSE,148,4.0,7.0,57,0.00,,FEW,0.00,555.00,VWS V14.01,2013-03-05 20:54:00,
2013-03-05 15:56:00,74.4,59.2,30.08,ENE,67,3.0,7.0,59,0.00,,FEW,0.00,543.00,VWS V14.01,2013-03-05 20:56:00,
2013-03-05 15:58:00,74.4,58.7,30.08,SE,146,3.0,7.0,58,0.00,,FEW,0.00,541.00,VWS V14.01,2013-03-05 20:58:00,
2013-03-05 15:59:00,74.5,58.8,30.08,SE,136,2.0,7.0,58,0.00,,FEW,0.00,538.00,VWS V14.01,2013-03-05 20:59:00,
2013-03-05 16:01:00,74.7,59.4,30.08,SE,125,2.0,7.0,59,0.00,,FEW,0.00,531.00,VWS V14.01,2013-03-05 21:01:00,
2013-03-05 16:03:00,74.8,59.0,30.08,SSE,155,6.0,7.0,58,0.00,,FEW,0.00,526.00,VWS V14.01,2013-03-05 21:03:00,
2013-03-05 16:04:00,74.6,58.9,30.08,SE,144,5.0,7.0,58,0.00,,FEW,0.00,520.00,VWS V14.01,2013-03-05 21:04:00,
2013-03-05 16:05:00,74.6,58.9,30.08,ESE,113,7.0,7.0,58,0.00,,FEW,0.00,520.00,VWS V14.01,2013-03-05 21:05:00,
2013-03-05 16:06:00,74.5,58.8,30.08,ESE,113,1.0,8.0,58,0.00,,FEW,0.00,513.00,VWS V14.01,2013-03-05 21:06:00,
2013-03-05 16:08:00,74.4,59.2,30.08,SSE,153,5.0,8.0,59,0.00,,FEW,0.00,497.00,VWS V14.01,2013-03-05 21:08:00,
2013-03-05 16:10:00,74.2,58.5,30.08,SE,136,3.0,8.0,58,0.00,,FEW,0.00,487.00,VWS V14.01,2013-03-05 21:10:00,
2013-03-05 16:12:00,74.0,58.8,30.08,South,170,4.0,8.0,59,0.00,,FEW,0.00,482.00,VWS V14.01,2013-03-05 21:12:00,
2013-03-05 16:13:00,73.9,59.2,30.08,ESE,105,3.0,6.0,60,0.00,,FEW,0.00,478.00,VWS V14.01,2013-03-05 21:13:00,
2013-03-05 16:15:00,73.9,59.2,30.08,ESE,119,2.0,7.0,60,0.00,,FEW,0.00,466.00,VWS V14.01,2013-03-05 21:15:00,
2013-03-05 16:17:00,74.1,59.8,30.08,SE,146,4.0,7.0,61,0.00,,FEW,0.00,457.00,VWS V14.01,2013-03-05 21:17:00,
2013-03-05 16:18:00,74.2,59.9,30.08,SE,136,4.0,7.0,61,0.00,,FEW,0.00,452.00,VWS V14.01,2013-03-05 21:18:00,
2013-03-05 16:20:00,74.2,59.0,30.08,East,90,0.0,7.0,59,0.00,,FEW,0.00,445.00,VWS V14.01,2013-03-05 21:20:00,
2013-03-05 16:22:00,74.1,58.9,30.08,SE,136,3.0,4.0,59,0.00,,FEW,0.00,438.00,VWS V14.01,2013-03-05 21:22:00,
2013-03-05 16:23:00,73.9,58.7,30.08,SSE,154,5.0,7.0,59,0.00,,FEW,0.00,434.00,VWS V14.01,2013-03-05 21:23:00,
2013-03-05 16:25:00,73.7,58.5,30.08,SSE,168,6.0,7.0,59,0.00,,FEW,0.00,420.00,VWS V14.01,2013-03-05 21:25:00,
2013-03-05 16:27:00,73.6,58.4,30.08,SE,142,3.0,7.0,59,0.00,,FEW,0.00,418.00,VWS V14.01,2013-03-05 21:27:00,
2013-03-05 16:28:00,73.6,58.4,30.08,South,175,3.0,7.0,59,0.00,,FEW,0.00,415.00,VWS V14.01,2013-03-05 21:28:00,
2013-03-05 16:30:00,73.6,58.4,30.08,SSE,154,5.0,7.0,59,0.00,,FEW,0.00,413.00,VWS V14.01,2013-03-05 21:30:00,
2013-03-05 16:32:00,73.6,58.9,30.08,ESE,119,2.0,4.0,60,0.00,,FEW,0.00,410.00,VWS V14.01,2013-03-05 21:32:00,
2013-03-05 16:34:00,73.7,59.0,30.08,SSE,155,3.0,4.0,60,0.00,,FEW,0.00,406.00,VWS V14.01,2013-03-05 21:34:00,
2013-03-05 16:35:00,73.7,58.5,30.08,ESE,121,1.0,6.0,59,0.00,,FEW,0.00,401.00,VWS V14.01,2013-03-05 21:35:00,
2013-03-05 16:37:00,73.7,59.0,30.08,SSE,157,1.0,6.0,60,0.00,,FEW,0.00,383.00,VWS V14.01,2013-03-05 21:37:00,
2013-03-05 16:39:00,73.8,59.5,30.08,ENE,67,2.0,6.0,61,0.00,,FEW,0.00,378.00,VWS V14.01,2013-03-05 21:39:00,
2013-03-05 16:40:00,73.9,59.6,30.08,SE,128,5.0,6.0,61,0.00,,FEW,0.00,373.00,VWS V14.01,2013-03-05 21:40:00,
2013-03-05 16:41:00,73.9,59.2,30.08,SSE,153,4.0,6.0,60,0.00,,FEW,0.00,373.00,VWS V14.01,2013-03-05 21:41:00,
2013-03-05 16:42:00,73.8,58.6,30.08,ESE,109,1.0,7.0,59,0.00,,FEW,0.00,360.00,VWS V14.01,2013-03-05 21:42:00,
2013-03-05 16:44:00,73.8,59.1,30.08,SE,126,6.0,7.0,60,0.00,,FEW,0.00,350.00,VWS V14.01,2013-03-05 21:44:00,
2013-03-05 16:46:00,73.7,58.5,30.08,SE,124,5.0,7.0,59,0.00,,FEW,0.00,346.00,VWS V14.01,2013-03-05 21:46:00,
2013-03-05 16:47:00,73.5,58.3,30.08,SSE,153,2.0,7.0,59,0.00,,FEW,0.00,343.00,VWS V14.01,2013-03-05 21:47:00,
2013-03-05 16:49:00,73.4,58.2,30.08,SE,126,3.0,7.0,59,0.00,,FEW,0.00,336.00,VWS V14.01,2013-03-05 21:49:00,
2013-03-05 16:51:00,73.3,58.6,30.08,SE,131,3.0,7.0,60,0.00,,FEW,0.00,327.00,VWS V14.01,2013-03-05 21:51:00,
2013-03-05 16:52:00,73.4,59.2,30.08,South,172,4.0,4.0,61,0.00,,FEW,0.00,323.00,VWS V14.01,2013-03-05 21:52:00,
2013-03-05 16:54:00,73.4,59.2,30.08,SE,132,2.0,4.0,61,0.00,,FEW,0.00,313.00,VWS V14.01,2013-03-05 21:54:00,
2013-03-05 16:56:00,73.4,59.2,30.08,SE,132,3.0,6.0,61,0.00,,FEW,0.00,308.00,VWS V14.01,2013-03-05 21:56:00,
2013-03-05 16:57:00,73.4,58.7,30.08,SE,140,2.0,6.0,60,0.00,,FEW,0.00,301.00,VWS V14.01,2013-03-05 21:57:00,
2013-03-05 16:59:00,73.3,58.6,30.08,SE,140,4.0,6.0,60,0.00,,FEW,0.00,297.00,VWS V14.01,2013-03-05 21:59:00,
2013-03-05 17:01:00,73.3,58.6,30.08,SE,134,2.0,6.0,60,0.00,,FEW,0.00,287.00,VWS V14.01,2013-03-05 22:01:00,
2013-03-05 17:02:00,73.4,59.2,30.08,SSE,150,3.0,3.0,61,0.00,,FEW,0.00,279.00,VWS V14.01,2013-03-05 22:02:00,
2013-03-05 17:04:00,73.4,58.7,30.08,SSE,151,3.0,5.0,60,0.00,,FEW,0.00,278.00,VWS V14.01,2013-03-05 22:04:00,
2013-03-05 17:06:00,73.3,58.1,30.08,ESE,121,3.0,6.0,59,0.00,,FEW,0.00,267.00,VWS V14.01,2013-03-05 22:06:00,
2013-03-05 17:07:00,73.3,58.1,30.08,ESE,121,0.0,6.0,59,0.00,,FEW,0.00,264.00,VWS V14.01,2013-03-05 22:07:00,
2013-03-05 17:09:00,73.1,57.9,30.08,SE,128,2.0,6.0,59,0.00,,FEW,0.00,255.00,VWS V14.01,2013-03-05 22:09:00,
2013-03-05 17:11:00,73.2,58.0,30.08,ESE,113,0.0,6.0,59,0.00,,FEW,0.00,250.00,VWS V14.01,2013-03-05 22:11:00,
2013-03-05 17:12:00,73.2,58.0,30.08,East,91,2.0,2.0,59,0.00,,FEW,0.00,246.00,VWS V14.01,2013-03-05 22:12:00,
2013-03-05 17:14:00,73.3,58.1,30.08,East,100,1.0,3.0,59,0.00,,FEW,0.00,237.00,VWS V14.01,2013-03-05 22:14:00,
2013-03-05 17:16:00,73.3,58.1,30.08,ESE,117,2.0,3.0,59,0.00,,FEW,0.00,230.00,VWS V14.01,2013-03-05 22:16:00,
2013-03-05 17:17:00,73.3,58.1,30.08,SE,141,1.0,3.0,59,0.00,,FEW,0.00,221.00,VWS V14.01,2013-03-05 22:17:00,
2013-03-05 17:19:00,73.3,58.1,30.08,SE,136,2.0,3.0,59,0.00,,FEW,0.00,218.00,VWS V14.01,2013-03-05 22:19:00,
2013-03-05 17:21:00,73.3,58.6,30.08,SE,138,0.0,3.0,60,0.00,,FEW,0.00,207.00,VWS V14.01,2013-03-05 22:21:00,
2013-03-05 17:22:00,73.3,58.6,30.08,ESE,102,1.0,2.0,60,0.00,,FEW,0.00,204.00,VWS V14.01,2013-03-05 22:22:00,
2013-03-05 17:24:00,73.2,58.5,30.08,East,100,0.0,2.0,60,0.00,,FEW,0.00,195.00,VWS V14.01,2013-03-05 22:24:00,
2013-03-05 17:26:00,73.2,59.0,30.08,ESE,107,1.0,4.0,61,0.00,,FEW,0.00,188.00,VWS V14.01,2013-03-05 22:26:00,
2013-03-05 17:27:00,73.2,58.5,30.08,SE,139,3.0,4.0,60,0.00,,FEW,0.00,185.00,VWS V14.01,2013-03-05 22:27:00,
2013-03-05 17:29:00,73.2,59.0,30.08,SSE,147,3.0,4.0,61,0.00,,FEW,0.00,179.00,VWS V14.01,2013-03-05 22:29:00,
2013-03-05 17:31:00,73.0,58.3,30.09,SE,138,2.0,4.0,60,0.00,,FEW,0.00,176.00,VWS V14.01,2013-03-05 22:31:00,
2013-03-05 17:32:00,73.0,58.3,30.09,ESE,105,2.0,3.0,60,0.00,,FEW,0.00,174.00,VWS V14.01,2013-03-05 22:32:00,
2013-03-05 17:34:00,72.9,58.2,30.09,SE,143,4.0,4.0,60,0.00,,FEW,0.00,167.00,VWS V14.01,2013-03-05 22:34:00,
2013-03-05 17:37:00,72.7,58.0,30.09,SE,146,2.0,4.0,60,0.00,,FEW,0.00,153.00,VWS V14.01,2013-03-05 22:37:00,
2013-03-05 17:39:00,72.6,57.9,30.09,SE,131,3.0,5.0,60,0.00,,FEW,0.00,144.00,VWS V14.01,2013-03-05 22:39:00,
2013-03-05 17:42:00,72.5,58.3,30.09,ESE,118,0.0,5.0,61,0.00,,FEW,0.00,134.00,VWS V14.01,2013-03-05 22:42:00,
2013-03-05 17:43:00,72.5,58.3,30.09,ESE,115,2.0,3.0,61,0.00,,FEW,0.00,130.00,VWS V14.01,2013-03-05 22:43:00,
2013-03-05 17:44:00,72.4,58.2,30.09,ESE,115,0.0,3.0,61,0.00,,FEW,0.00,121.00,VWS V14.01,2013-03-05 22:44:00,
2013-03-05 17:47:00,72.4,59.1,30.09,ESE,115,0.0,3.0,63,0.00,,FEW,0.00,113.00,VWS V14.01,2013-03-05 22:47:00,
2013-03-05 17:48:00,72.4,58.7,30.09,East,86,2.0,3.0,62,0.00,,FEW,0.00,109.00,VWS V14.01,2013-03-05 22:48:00,
2013-03-05 17:49:00,72.3,58.6,30.09,ESE,108,1.0,3.0,62,0.00,,FEW,0.00,100.00,VWS V14.01,2013-03-05 22:49:00,
2013-03-05 17:52:00,72.3,58.6,30.09,East,98,1.0,1.0,62,0.00,,FEW,0.00,91.00,VWS V14.01,2013-03-05 22:52:00,
2013-03-05 17:53:00,72.2,58.5,30.09,East,95,0.0,1.0,62,0.00,,FEW,0.00,86.00,VWS V14.01,2013-03-05 22:53:00,
2013-03-05 17:54:00,72.2,58.9,30.09,East,95,0.0,1.0,63,0.00,,FEW,0.00,83.00,VWS V14.01,2013-03-05 22:54:00,
2013-03-05 17:57:00,72.1,59.3,30.09,East,95,0.0,1.0,64,0.00,,FEW,0.00,72.00,VWS V14.01,2013-03-05 22:57:00,
2013-03-05 17:58:00,72.0,59.2,30.09,East,95,1.0,2.0,64,0.00,,FEW,0.00,69.00,VWS V14.01,2013-03-05 22:58:00,
2013-03-05 17:59:00,71.9,59.1,30.09,East,95,0.0,2.0,64,0.00,,FEW,0.00,63.00,VWS V14.01,2013-03-05 22:59:00,
2013-03-05 18:02:00,71.7,58.9,30.09,East,96,0.0,1.0,64,0.00,,FEW,0.00,56.00,VWS V14.01,2013-03-05 23:02:00,
2013-03-05 18:03:00,71.7,58.9,30.09,East,97,1.0,2.0,64,0.00,,FEW,0.00,54.00,VWS V14.01,2013-03-05 23:03:00,
2013-03-05 18:05:00,71.7,58.9,30.09,East,82,1.0,2.0,64,0.00,,FEW,0.00,44.00,VWS V14.01,2013-03-05 23:05:00,
2013-03-05 18:07:00,71.7,58.9,30.09,East,88,1.0,3.0,64,0.00,,FEW,0.00,23.00,VWS V14.01,2013-03-05 23:07:00,
2013-03-05 18:08:00,71.7,58.9,30.09,East,89,1.0,3.0,64,0.00,,FEW,0.00,21.00,VWS V14.01,2013-03-05 23:08:00,
2013-03-05 18:10:00,71.8,58.5,30.09,East,81,1.0,3.0,63,0.00,,FEW,0.00,19.00,VWS V14.01,2013-03-05 23:10:00,
2013-03-05 18:12:00,71.7,58.5,30.09,East,92,1.0,1.0,63,0.00,,FEW,0.00,18.00,VWS V14.01,2013-03-05 23:12:00,
2013-03-05 18:13:00,71.7,58.5,30.09,ENE,78,2.0,2.0,63,0.00,,FEW,0.00,18.00,VWS V14.01,2013-03-05 23:13:00,
2013-03-05 18:15:00,71.7,58.5,30.09,East,89,0.0,2.0,63,0.00,,FEW,0.00,16.00,VWS V14.01,2013-03-05 23:15:00,
2013-03-05 18:17:00,71.6,58.3,30.09,East,89,0.0,2.0,63,0.00,,FEW,0.00,12.00,VWS V14.01,2013-03-05 23:17:00,
2013-03-05 18:18:00,71.6,58.3,30.09,East,89,1.0,2.0,63,0.00,,FEW,0.00,12.00,VWS V14.01,2013-03-05 23:18:00,
2013-03-05 18:20:00,71.5,58.3,30.09,East,80,0.0,2.0,63,0.00,,FEW,0.00,11.00,VWS V14.01,2013-03-05 23:20:00,
2013-03-05 18:22:00,71.4,58.2,30.09,East,80,1.0,1.0,63,0.00,,FEW,0.00,9.00,VWS V14.01,2013-03-05 23:22:00,
2013-03-05 18:23:00,71.3,58.1,30.09,East,80,1.0,1.0,63,0.00,,FEW,0.00,9.00,VWS V14.01,2013-03-05 23:23:00,
2013-03-05 18:25:00,71.2,58.0,30.09,East,80,0.0,1.0,63,0.00,,FEW,0.00,7.00,VWS V14.01,2013-03-05 23:25:00,
2013-03-05 18:27:00,71.1,57.9,30.09,East,83,2.0,2.0,63,0.00,,FEW,0.00,5.00,VWS V14.01,2013-03-05 23:27:00,
2013-03-05 18:28:00,71.1,57.9,30.09,East,83,0.0,2.0,63,0.00,,FEW,0.00,5.00,VWS V14.01,2013-03-05 23:28:00,
2013-03-05 18:30:00,71.0,57.8,30.09,East,85,0.0,2.0,63,0.00,,FEW,0.00,5.00,VWS V14.01,2013-03-05 23:30:00,
2013-03-05 18:32:00,70.8,58.0,30.10,East,85,0.0,1.0,64,0.00,,FEW,0.00,0.00,VWS V14.01,2013-03-05 23:32:00,
2013-03-05 18:33:00,70.8,58.0,30.10,East,85,0.0,1.0,64,0.00,,FEW,0.00,0.00,VWS V14.01,2013-03-05 23:33:00,
2013-03-05 18:35:00,70.7,57.9,30.10,East,85,1.0,2.0,64,0.00,,FEW,0.00,0.00,VWS V14.01,2013-03-05 23:35:00,
2013-03-05 18:37:00,70.6,58.3,30.10,East,85,1.0,2.0,65,0.00,,FEW,0.00,0.00,VWS V14.01,2013-03-05 23:37:00,
2013-03-05 18:38:00,70.6,58.3,30.10,East,85,1.0,2.0,65,0.00,,FEW,0.00,0.00,VWS V14.01,2013-03-05 23:38:00,
2013-03-05 18:40:00,70.4,58.5,30.10,East,85,1.0,2.0,66,0.00,,FEW,0.00,0.00,VWS V14.01,2013-03-05 23:40:00,
2013-03-05 18:42:00,70.3,58.4,30.10,East,85,0.0,0.0,66,0.00,,FEW,0.00,0.00,VWS V14.01,2013-03-05 23:42:00,
2013-03-05 18:43:00,70.3,58.4,30.10,East,85,0.0,1.0,66,0.00,,FEW,0.00,0.00,VWS V14.01,2013-03-05 23:43:00,
2013-03-05 18:44:00,70.3,58.4,30.10,East,85,0.0,1.0,66,0.00,,FEW,0.00,0.00,VWS V14.01,2013-03-05 23:44:00,
2013-03-05 18:46:00,70.1,58.2,30.09,East,93,1.0,2.0,66,0.00,,FEW,0.00,0.00,VWS V14.01,2013-03-05 23:46:00,
2013-03-05 18:47:00,70.0,58.5,30.09,East,93,0.0,2.0,67,0.00,,FEW,0.00,0.00,VWS V14.01,2013-03-05 23:47:00,
2013-03-05 18:48:00,70.0,58.5,30.09,East,93,0.0,2.0,67,0.00,,FEW,0.00,0.00,VWS V14.01,2013-03-05 23:48:00,
2013-03-05 18:49:00,70.0,58.5,30.09,East,93,1.0,2.0,67,0.00,,FEW,0.00,0.00,VWS V14.01,2013-03-05 23:49:00,
2013-03-05 18:51:00,69.9,58.5,30.09,East,93,0.0,2.0,67,0.00,,FEW,0.00,0.00,VWS V14.01,2013-03-05 23:51:00,
2013-03-05 18:52:00,69.8,58.4,30.09,East,93,0.0,0.0,67,0.00,,FEW,0.00,0.00,VWS V14.01,2013-03-05 23:52:00,
2013-03-05 18:53:00,69.8,58.4,30.09,East,93,0.0,0.0,67,0.00,,FEW,0.00,0.00,VWS V14.01,2013-03-05 23:53:00,
2013-03-05 18:54:00,69.7,58.3,30.09,East,93,0.0,0.0,67,0.00,,FEW,0.00,0.00,VWS V14.01,2013-03-05 23:54:00,
2013-03-05 18:56:00,69.7,58.3,30.09,East,93,0.0,0.0,67,0.00,,FEW,0.00,0.00,VWS V14.01,2013-03-05 23:56:00,
2013-03-05 18:57:00,69.6,58.2,30.09,East,93,0.0,1.0,67,0.00,,FEW,0.00,0.00,VWS V14.01,2013-03-05 23:57:00,
2013-03-05 18:58:00,69.5,58.1,30.09,East,93,0.0,1.0,67,0.00,,FEW,0.00,0.00,VWS V14.01,2013-03-05 23:58:00,
2013-03-05 18:59:00,69.5,58.5,30.09,East,93,0.0,1.0,68,0.00,,FEW,0.00,0.00,VWS V14.01,2013-03-05 23:59:00,
2013-03-05 19:01:00,69.4,58.4,30.10,East,93,0.0,1.0,68,0.00,,FEW,0.00,0.00,VWS V14.01,2013-03-06 00:01:00,
2013-03-05 19:02:00,69.4,58.4,30.10,East,93,0.0,1.0,68,0.00,,FEW,0.00,0.00,VWS V14.01,2013-03-06 00:02:00,
2013-03-05 19:03:00,69.3,58.3,30.10,East,93,0.0,1.0,68,0.00,,FEW,0.00,0.00,VWS V14.01,2013-03-06 00:03:00,
2013-03-05 19:04:00,69.3,58.3,30.10,East,93,0.0,1.0,68,0.00,,FEW,0.00,0.00,VWS V14.01,2013-03-06 00:04:00,
2013-03-05 19:06:00,69.2,58.2,30.10,East,93,0.0,1.0,68,0.00,,FEW,0.00,0.00,VWS V14.01,2013-03-06 00:06:00,
2013-03-05 19:07:00,69.1,58.5,30.10,East,93,0.0,1.0,69,0.00,,FEW,0.00,0.00,VWS V14.01,2013-03-06 00:07:00,
2013-03-05 19:08:00,69.1,58.5,30.10,East,93,0.0,1.0,69,0.00,,FEW,0.00,0.00,VWS V14.01,2013-03-06 00:08:00,
2013-03-05 19:09:00,69.1,58.5,30.10,East,93,0.0,1.0,69,0.00,,FEW,0.00,0.00,VWS V14.01,2013-03-06 00:09:00,
2013-03-05 19:11:00,69.0,58.4,30.10,East,93,0.0,1.0,69,0.00,,FEW,0.00,0.00,VWS V14.01,2013-03-06 00:11:00,
2013-03-05 19:13:00,68.9,58.3,30.10,East,93,0.0,0.0,69,0.00,,FEW,0.00,0.00,VWS V14.01,2013-03-06 00:13:00,
2013-03-05 19:15:00,68.8,58.2,30.10,East,93,0.0,0.0,69,0.00,,FEW,0.00,0.00,VWS V14.01,2013-03-06 00:15:00,
2013-03-05 19:16:00,68.8,58.2,30.10,East,93,0.0,0.0,69,0.00,,FEW,0.00,0.00,VWS V14.01,2013-03-06 00:16:00,
2013-03-05 19:18:00,68.7,58.5,30.10,East,93,0.0,0.0,70,0.00,,FEW,0.00,0.00,VWS V14.01,2013-03-06 00:18:00,
2013-03-05 19:19:00,68.7,58.5,30.10,East,93,0.0,0.0,70,0.00,,FEW,0.00,0.00,VWS V14.01,2013-03-06 00:19:00,
2013-03-05 19:20:00,68.6,58.4,30.10,East,93,0.0,0.0,70,0.00,,FEW,0.00,0.00,VWS V14.01,2013-03-06 00:20:00,
2013-03-05 19:21:00,68.6,58.4,30.10,East,93,0.0,0.0,70,0.00,,FEW,0.00,0.00,VWS V14.01,2013-03-06 00:21:00,
2013-03-05 19:23:00,68.5,58.3,30.10,East,93,0.0,0.0,70,0.00,,FEW,0.00,0.00,VWS V14.01,2013-03-06 00:23:00,
2013-03-05 19:24:00,68.5,58.7,30.10,East,93,0.0,0.0,71,0.00,,FEW,0.00,0.00,VWS V14.01,2013-03-06 00:24:00,
2013-03-05 19:25:00,68.5,58.7,30.10,East,93,0.0,0.0,71,0.00,,FEW,0.00,0.00,VWS V14.01,2013-03-06 00:25:00,
2013-03-05 19:26:00,68.4,58.6,30.10,East,93,0.0,0.0,71,0.00,,FEW,0.00,0.00,VWS V14.01,2013-03-06 00:26:00,
2013-03-05 19:28:00,68.3,58.5,30.10,East,93,0.0,0.0,71,0.00,,FEW,0.00,0.00,VWS V14.01,2013-03-06 00:28:00,
2013-03-05 19:29:00,68.3,58.5,30.10,East,93,0.0,1.0,71,0.00,,FEW,0.00,0.00,VWS V14.01,2013-03-06 00:29:00,
2013-03-05 19:30:00,68.2,58.0,30.10,East,93,0.0,1.0,70,0.00,,FEW,0.00,0.00,VWS V14.01,2013-03-06 00:30:00,
2013-03-05 19:31:00,68.2,58.5,30.10,East,93,0.0,1.0,71,0.00,,FEW,0.00,0.00,VWS V14.01,2013-03-06 00:31:00,
2013-03-05 19:33:00,68.1,58.3,30.10,East,93,0.0,1.0,71,0.00,,FEW,0.00,0.00,VWS V14.01,2013-03-06 00:33:00,
2013-03-05 19:34:00,68.0,58.3,30.10,East,93,0.0,1.0,71,0.00,,FEW,0.00,0.00,VWS V14.01,2013-03-06 00:34:00,
2013-03-05 19:35:00,68.0,58.3,30.10,East,93,0.0,1.0,71,0.00,,FEW,0.00,0.00,VWS V14.01,2013-03-06 00:35:00,
2013-03-05 19:36:00,68.0,58.3,30.10,East,93,0.0,1.0,71,0.00,,FEW,0.00,0.00,VWS V14.01,2013-03-06 00:36:00,
2013-03-05 19:39:00,67.9,58.2,30.10,East,93,0.0,1.0,71,0.00,,FEW,0.00,0.00,VWS V14.01,2013-03-06 00:39:00,
2013-03-05 19:40:00,67.9,58.2,30.10,East,93,0.0,1.0,71,0.00,,FEW,0.00,0.00,VWS V14.01,2013-03-06 00:40:00,
2013-03-05 19:41:00,67.8,58.1,30.10,East,93,0.0,1.0,71,0.00,,FEW,0.00,0.00,VWS V14.01,2013-03-06 00:41:00,
2013-03-05 19:44:00,67.7,58.4,30.10,East,93,0.0,1.0,72,0.00,,FEW,0.00,0.00,VWS V14.01,2013-03-06 00:44:00,
2013-03-05 19:45:00,67.7,58.4,30.10,East,93,0.0,1.0,72,0.00,,FEW,0.00,0.00,VWS V14.01,2013-03-06 00:45:00,
2013-03-05 19:46:00,67.6,58.3,30.10,East,93,1.0,1.0,72,0.00,,FEW,0.00,0.00,VWS V14.01,2013-03-06 00:46:00,
2013-03-05 19:49:00,67.6,58.3,30.10,East,93,0.0,1.0,72,0.00,,FEW,0.00,0.00,VWS V14.01,2013-03-06 00:49:00,
2013-03-05 19:50:00,67.5,58.2,30.10,East,93,0.0,1.0,72,0.00,,FEW,0.00,0.00,VWS V14.01,2013-03-06 00:50:00,
2013-03-05 19:51:00,67.5,58.2,30.10,East,93,0.0,1.0,72,0.00,,FEW,0.00,0.00,VWS V14.01,2013-03-06 00:51:00,
2013-03-05 19:54:00,67.4,58.1,30.10,East,93,0.0,0.0,72,0.00,,FEW,0.00,0.00,VWS V14.01,2013-03-06 00:54:00,
2013-03-05 19:55:00,67.4,58.1,30.10,East,93,0.0,0.0,72,0.00,,FEW,0.00,0.00,VWS V14.01,2013-03-06 00:55:00,
2013-03-05 19:57:00,67.4,58.1,30.10,East,93,0.0,0.0,72,0.00,,FEW,0.00,0.00,VWS V14.01,2013-03-06 00:57:00,
2013-03-05 19:59:00,67.3,58.4,30.10,East,93,0.0,1.0,73,0.00,,FEW,0.00,0.00,VWS V14.01,2013-03-06 00:59:00,
2013-03-05 20:00:00,67.3,58.4,30.10,East,93,0.0,1.0,73,0.00,,FEW,0.00,0.00,VWS V14.01,2013-03-06 01:00:00,
2013-03-05 20:02:00,67.2,58.3,30.11,East,93,0.0,0.0,73,0.00,,FEW,0.00,0.00,VWS V14.01,2013-03-06 01:02:00,
2013-03-05 20:04:00,67.1,58.2,30.11,East,93,0.0,0.0,73,0.00,,FEW,0.00,0.00,VWS V14.01,2013-03-06 01:04:00,
2013-03-05 20:05:00,67.1,58.2,30.11,East,93,0.0,0.0,73,0.00,,FEW,0.00,0.00,VWS V14.01,2013-03-06 01:05:00,
2013-03-05 20:07:00,67.0,58.1,30.11,East,93,0.0,0.0,73,0.00,,FEW,0.00,0.00,VWS V14.01,2013-03-06 01:07:00,
2013-03-05 20:09:00,67.0,58.1,30.11,East,93,0.0,1.0,73,0.00,,FEW,0.00,0.00,VWS V14.01,2013-03-06 01:09:00,
2013-03-05 20:10:00,66.9,58.0,30.11,East,93,0.0,1.0,73,0.00,,FEW,0.00,0.00,VWS V14.01,2013-03-06 01:10:00,
2013-03-05 20:12:00,66.9,58.0,30.11,East,93,0.0,0.0,73,0.00,,FEW,0.00,0.00,VWS V14.01,2013-03-06 01:12:00,
2013-03-05 20:14:00,66.9,58.3,30.11,East,93,0.0,1.0,74,0.00,,FEW,0.00,0.00,VWS V14.01,2013-03-06 01:14:00,
2013-03-05 20:16:00,66.8,57.9,30.11,East,93,0.0,1.0,73,0.00,,FEW,0.00,0.00,VWS V14.01,2013-03-06 01:16:00,
2013-03-05 20:17:00,66.8,58.3,30.11,East,93,0.0,1.0,74,0.00,,FEW,0.00,0.00,VWS V14.01,2013-03-06 01:17:00,
2013-03-05 20:19:00,66.8,58.3,30.11,East,93,0.0,1.0,74,0.00,,FEW,0.00,0.00,VWS V14.01,2013-03-06 01:19:00,
2013-03-05 20:20:00,66.8,58.3,30.11,East,93,0.0,1.0,74,0.00,,FEW,0.00,0.00,VWS V14.01,2013-03-06 01:20:00,
2013-03-05 20:21:00,66.7,58.2,30.11,East,93,0.0,1.0,74,0.00,,FEW,0.00,0.00,VWS V14.01,2013-03-06 01:21:00,
2013-03-05 20:22:00,66.7,58.2,30.11,East,93,0.0,1.0,74,0.00,,FEW,0.00,0.00,VWS V14.01,2013-03-06 01:22:00,
2013-03-05 20:24:00,66.7,58.2,30.11,East,93,0.0,1.0,74,0.00,,FEW,0.00,0.00,VWS V14.01,2013-03-06 01:24:00,
2013-03-05 20:25:00,66.7,58.2,30.11,East,93,0.0,1.0,74,0.00,,FEW,0.00,0.00,VWS V14.01,2013-03-06 01:25:00,
2013-03-05 20:26:00,66.7,58.2,30.11,East,93,0.0,1.0,74,0.00,,FEW,0.00,0.00,VWS V14.01,2013-03-06 01:26:00,
2013-03-05 20:27:00,66.6,58.1,30.11,East,93,0.0,1.0,74,0.00,,FEW,0.00,0.00,VWS V14.01,2013-03-06 01:27:00,
2013-03-05 20:30:00,66.6,58.1,30.11,East,93,0.0,1.0,74,0.00,,FEW,0.00,0.00,VWS V14.01,2013-03-06 01:30:00,
2013-03-05 20:31:00,66.6,58.1,30.11,East,93,0.0,1.0,74,0.00,,FEW,0.00,0.00,VWS V14.01,2013-03-06 01:31:00,
2013-03-05 20:32:00,66.5,58.0,30.11,East,93,0.0,0.0,74,0.00,,FEW,0.00,0.00,VWS V14.01,2013-03-06 01:32:00,
2013-03-05 20:35:00,66.5,58.0,30.11,East,93,0.0,0.0,74,0.00,,FEW,0.00,0.00,VWS V14.01,2013-03-06 01:35:00,
2013-03-05 20:36:00,66.5,58.0,30.11,East,93,0.0,0.0,74,0.00,,FEW,0.00,0.00,VWS V14.01,2013-03-06 01:36:00,
2013-03-05 20:37:00,66.4,57.9,30.11,East,93,0.0,0.0,74,0.00,,FEW,0.00,0.00,VWS V14.01,2013-03-06 01:37:00,
2013-03-05 20:40:00,66.4,57.9,30.11,East,93,0.0,0.0,74,0.00,,FEW,0.00,0.00,VWS V14.01,2013-03-06 01:40:00,
2013-03-05 20:41:00,66.3,57.8,30.11,East,93,0.0,0.0,74,0.00,,FEW,0.00,0.00,VWS V14.01,2013-03-06 01:41:00,
2013-03-05 20:43:00,66.3,58.2,30.11,East,93,0.0,0.0,75,0.00,,FEW,0.00,0.00,VWS V14.01,2013-03-06 01:43:00,
2013-03-05 20:45:00,66.3,58.2,30.11,East,93,0.0,0.0,75,0.00,,FEW,0.00,0.00,VWS V14.01,2013-03-06 01:45:00,
2013-03-05 20:46:00,66.2,58.0,30.11,East,93,0.0,0.0,75,0.00,,FEW,0.00,0.00,VWS V14.01,2013-03-06 01:46:00,
2013-03-05 20:48:00,66.2,58.0,30.11,East,93,0.0,0.0,75,0.00,,FEW,0.00,0.00,VWS V14.01,2013-03-06 01:48:00,
2013-03-05 20:50:00,66.2,58.0,30.11,East,93,1.0,1.0,75,0.00,,FEW,0.00,0.00,VWS V14.01,2013-03-06 01:50:00,
2013-03-05 20:51:00,66.2,58.4,30.11,East,93,0.0,1.0,76,0.00,,FEW,0.00,0.00,VWS V14.01,2013-03-06 01:51:00,
2013-03-05 20:53:00,66.2,58.4,30.11,East,93,0.0,0.0,76,0.00,,FEW,0.00,0.00,VWS V14.01,2013-03-06 01:53:00,
2013-03-05 20:55:00,66.2,58.4,30.11,East,93,0.0,0.0,76,0.00,,FEW,0.00,0.00,VWS V14.01,2013-03-06 01:55:00,
2013-03-05 20:56:00,66.2,58.4,30.11,East,93,0.0,0.0,76,0.00,,FEW,0.00,0.00,VWS V14.01,2013-03-06 01:56:00,
2013-03-05 20:58:00,66.2,58.4,30.11,East,93,0.0,0.0,76,0.00,,FEW,0.00,0.00,VWS V14.01,2013-03-06 01:58:00,
2013-03-05 21:00:00,66.1,58.3,30.11,East,93,0.0,0.0,76,0.00,,FEW,0.00,0.00,VWS V14.01,2013-03-06 02:00:00,
2013-03-05 21:01:00,66.1,58.3,30.12,East,93,0.0,0.0,76,0.00,,FEW,0.00,0.00,VWS V14.01,2013-03-06 02:01:00,
2013-03-05 21:03:00,66.0,58.2,30.12,East,93,0.0,0.0,76,0.00,,FEW,0.00,0.00,VWS V14.01,2013-03-06 02:03:00,
2013-03-05 21:05:00,66.0,58.2,30.12,East,93,0.0,0.0,76,0.00,,FEW,0.00,0.00,VWS V14.01,2013-03-06 02:05:00,
2013-03-05 21:06:00,65.9,58.1,30.12,East,93,0.0,0.0,76,0.00,,FEW,0.00,0.00,VWS V14.01,2013-03-06 02:06:00,
2013-03-05 21:08:00,65.9,58.1,30.12,East,93,1.0,2.0,76,0.00,,FEW,0.00,0.00,VWS V14.01,2013-03-06 02:08:00,
2013-03-05 21:10:00,65.8,58.4,30.12,East,93,0.0,2.0,77,0.00,,FEW,0.00,0.00,VWS V14.01,2013-03-06 02:10:00,
2013-03-05 21:11:00,65.8,58.4,30.12,East,93,0.0,2.0,77,0.00,,FEW,0.00,0.00,VWS V14.01,2013-03-06 02:11:00,
2013-03-05 21:13:00,65.8,58.4,30.12,East,93,0.0,0.0,77,0.00,,FEW,0.00,0.00,VWS V14.01,2013-03-06 02:13:00,
2013-03-05 21:15:00,65.7,58.3,30.12,East,93,0.0,0.0,77,0.00,,FEW,0.00,0.00,VWS V14.01,2013-03-06 02:15:00,
2013-03-05 21:16:00,65.7,58.3,30.13,East,93,1.0,1.0,77,0.00,,FEW,0.00,0.00,VWS V14.01,2013-03-06 02:16:00,
2013-03-05 21:18:00,65.7,58.3,30.13,East,93,1.0,1.0,77,0.00,,FEW,0.00,0.00,VWS V14.01,2013-03-06 02:18:00,
2013-03-05 21:20:00,65.7,58.3,30.13,East,93,1.0,1.0,77,0.00,,FEW,0.00,0.00,VWS V14.01,2013-03-06 02:20:00,
2013-03-05 21:21:00,65.6,58.2,30.13,East,93,0.0,1.0,77,0.00,,FEW,0.00,0.00,VWS V14.01,2013-03-06 02:21:00,
2013-03-05 21:23:00,65.6,58.2,30.13,East,93,0.0,1.0,77,0.00,,FEW,0.00,0.00,VWS V14.01,2013-03-06 02:23:00,
2013-03-05 21:25:00,65.6,58.2,30.13,East,93,0.0,1.0,77,0.00,,FEW,0.00,0.00,VWS V14.01,2013-03-06 02:25:00,
2013-03-05 21:27:00,65.6,58.2,30.13,East,93,1.0,1.0,77,0.00,,FEW,0.00,0.00,VWS V14.01,2013-03-06 02:27:00,
2013-03-05 21:29:00,65.7,58.7,30.13,East,93,0.0,1.0,78,0.00,,FEW,0.00,0.00,VWS V14.01,2013-03-06 02:29:00,
2013-03-05 21:30:00,65.7,58.7,30.13,East,93,0.0,1.0,78,0.00,,FEW,0.00,0.00,VWS V14.01,2013-03-06 02:30:00,
2013-03-05 21:32:00,65.8,58.8,30.13,East,93,0.0,0.0,78,0.00,,FEW,0.00,0.00,VWS V14.01,2013-03-06 02:32:00,
2013-03-05 21:34:00,65.8,59.1,30.13,East,93,0.0,1.0,79,0.00,,FEW,0.00,0.00,VWS V14.01,2013-03-06 02:34:00,
2013-03-05 21:35:00,65.8,59.1,30.13,East,93,1.0,1.0,79,0.00,,FEW,0.00,0.00,VWS V14.01,2013-03-06 02:35:00,
2013-03-05 21:36:00,65.8,59.1,30.13,East,93,0.0,1.0,79,0.00,,FEW,0.00,0.00,VWS V14.01,2013-03-06 02:36:00,
2013-03-05 21:37:00,65.8,59.1,30.13,East,93,0.0,1.0,79,0.00,,FEW,0.00,0.00,VWS V14.01,2013-03-06 02:37:00,
2013-03-05 21:39:00,65.8,59.1,30.13,East,93,0.0,1.0,79,0.00,,FEW,0.00,0.00,VWS V14.01,2013-03-06 02:39:00,
2013-03-05 21:40:00,65.8,59.5,30.13,East,93,0.0,1.0,80,0.00,,FEW,0.00,0.00,VWS V14.01,2013-03-06 02:40:00,
2013-03-05 21:41:00,65.8,59.5,30.13,East,93,1.0,1.0,80,0.00,,FEW,0.00,0.00,VWS V14.01,2013-03-06 02:41:00,
2013-03-05 21:42:00,65.8,59.5,30.13,East,93,1.0,1.0,80,0.00,,FEW,0.00,0.00,VWS V14.01,2013-03-06 02:42:00,
2013-03-05 21:44:00,65.7,59.4,30.13,East,93,1.0,1.0,80,0.00,,FEW,0.00,0.00,VWS V14.01,2013-03-06 02:44:00,
2013-03-05 21:46:00,65.7,59.4,30.13,East,93,1.0,2.0,80,0.00,,FEW,0.00,0.00,VWS V14.01,2013-03-06 02:46:00,
2013-03-05 21:47:00,65.7,59.4,30.13,East,93,0.0,2.0,80,0.00,,FEW,0.00,0.00,VWS V14.01,2013-03-06 02:47:00,
2013-03-05 21:49:00,65.7,59.4,30.13,East,93,0.0,2.0,80,0.00,,FEW,0.00,0.00,VWS V14.01,2013-03-06 02:49:00,
2013-03-05 21:51:00,65.6,59.3,30.13,East,93,0.0,2.0,80,0.00,,FEW,0.00,0.00,VWS V14.01,2013-03-06 02:51:00,
2013-03-05 21:52:00,65.6,59.3,30.13,East,93,0.0,0.0,80,0.00,,FEW,0.00,0.00,VWS V14.01,2013-03-06 02:52:00,
2013-03-05 21:54:00,65.6,59.3,30.13,East,93,0.0,0.0,80,0.00,,FEW,0.00,0.00,VWS V14.01,2013-03-06 02:54:00,
2013-03-05 21:56:00,65.5,59.2,30.13,East,93,0.0,0.0,80,0.00,,FEW,0.00,0.00,VWS V14.01,2013-03-06 02:56:00,
2013-03-05 21:57:00,65.5,59.2,30.13,East,93,0.0,0.0,80,0.00,,FEW,0.00,0.00,VWS V14.01,2013-03-06 02:57:00,
2013-03-05 21:59:00,65.4,59.4,30.13,East,93,0.0,0.0,81,0.00,,FEW,0.00,0.00,VWS V14.01,2013-03-06 02:59:00,
2013-03-05 22:01:00,65.4,59.4,30.13,East,93,0.0,0.0,81,0.00,,FEW,0.00,0.00,VWS V14.01,2013-03-06 03:01:00,
2013-03-05 22:02:00,65.4,59.4,30.13,East,93,0.0,0.0,81,0.00,,FEW,0.00,0.00,VWS V14.01,2013-03-06 03:02:00,
2013-03-05 22:04:00,65.4,59.4,30.13,East,93,1.0,1.0,81,0.00,,FEW,0.00,0.00,VWS V14.01,2013-03-06 03:04:00,
2013-03-05 22:06:00,65.4,59.4,30.13,East,93,0.0,2.0,81,0.00,,FEW,0.00,0.00,VWS V14.01,2013-03-06 03:06:00,
2013-03-05 22:07:00,65.3,59.3,30.13,East,93,0.0,2.0,81,0.00,,FEW,0.00,0.00,VWS V14.01,2013-03-06 03:07:00,
2013-03-05 22:10:00,65.3,59.7,30.13,East,93,0.0,2.0,82,0.00,,FEW,0.00,0.00,VWS V14.01,2013-03-06 03:10:00,
2013-03-05 22:11:00,65.3,59.7,30.13,East,93,0.0,2.0,82,0.00,,FEW,0.00,0.00,VWS V14.01,2013-03-06 03:11:00,
2013-03-05 22:12:00,65.3,59.7,30.13,East,93,0.0,0.0,82,0.00,,FEW,0.00,0.00,VWS V14.01,2013-03-06 03:12:00,
2013-03-05 22:15:00,65.2,59.6,30.13,East,93,0.0,0.0,82,0.00,,FEW,0.00,0.00,VWS V14.01,2013-03-06 03:15:00,
2013-03-05 22:16:00,65.2,59.6,30.13,East,93,0.0,0.0,82,0.00,,FEW,0.00,0.00,VWS V14.01,2013-03-06 03:16:00,
2013-03-05 22:17:00,65.1,59.5,30.13,East,93,0.0,0.0,82,0.00,,FEW,0.00,0.00,VWS V14.01,2013-03-06 03:17:00,
2013-03-05 22:20:00,65.1,59.5,30.13,East,93,0.0,0.0,82,0.00,,FEW,0.00,0.00,VWS V14.01,2013-03-06 03:20:00,
2013-03-05 22:21:00,65.1,59.8,30.13,East,93,0.0,0.0,83,0.00,,FEW,0.00,0.00,VWS V14.01,2013-03-06 03:21:00,
2013-03-05 22:22:00,65.1,59.8,30.13,East,93,0.0,0.0,83,0.00,,FEW,0.00,0.00,VWS V14.01,2013-03-06 03:22:00,
2013-03-05 22:23:00,65.1,59.8,30.13,East,93,0.0,0.0,83,0.00,,FEW,0.00,0.00,VWS V14.01,2013-03-06 03:23:00,
2013-03-05 22:25:00,65.1,59.8,30.13,East,93,0.0,0.0,83,0.00,,FEW,0.00,0.00,VWS V14.01,2013-03-06 03:25:00,
2013-03-05 22:26:00,65.0,59.7,30.13,East,93,0.0,0.0,83,0.00,,FEW,0.00,0.00,VWS V14.01,2013-03-06 03:26:00,
2013-03-05 22:27:00,65.0,59.7,30.13,East,93,0.0,0.0,83,0.00,,FEW,0.00,0.00,VWS V14.01,2013-03-06 03:27:00,
2013-03-05 22:28:00,65.0,59.7,30.13,East,93,0.0,0.0,83,0.00,,FEW,0.00,0.00,VWS V14.01,2013-03-06 03:28:00,
2013-03-05 22:30:00,64.9,59.6,30.13,East,93,0.0,0.0,83,0.00,,FEW,0.00,0.00,VWS V14.01,2013-03-06 03:30:00,
2013-03-05 22:31:00,64.9,59.6,30.12,East,93,0.0,0.0,83,0.00,,FEW,0.00,0.00,VWS V14.01,2013-03-06 03:31:00,
2013-03-05 22:32:00,64.9,59.6,30.12,East,93,0.0,0.0,83,0.00,,FEW,0.00,0.00,VWS V14.01,2013-03-06 03:32:00,
2013-03-05 22:33:00,64.9,60.0,30.12,East,93,0.0,0.0,84,0.00,,FEW,0.00,0.00,VWS V14.01,2013-03-06 03:33:00,
2013-03-05 22:35:00,65.0,60.4,30.12,East,93,0.0,0.0,85,0.00,,FEW,0.00,0.00,VWS V14.01,2013-03-06 03:35:00,
2013-03-05 22:36:00,65.1,60.5,30.12,East,93,0.0,0.0,85,0.00,,FEW,0.00,0.00,VWS V14.01,2013-03-06 03:36:00,
2013-03-05 22:37:00,65.1,60.5,30.12,East,93,0.0,0.0,85,0.00,,FEW,0.00,0.00,VWS V14.01,2013-03-06 03:37:00,
2013-03-05 22:38:00,65.1,60.5,30.12,East,93,0.0,0.0,85,0.00,,FEW,0.00,0.00,VWS V14.01,2013-03-06 03:38:00,
2013-03-05 22:40:00,65.1,60.8,30.12,East,93,0.0,0.0,86,0.00,,FEW,0.00,0.00,VWS V14.01,2013-03-06 03:40:00,
2013-03-05 22:42:00,65.1,60.8,30.12,East,93,0.0,0.0,86,0.00,,FEW,0.00,0.00,VWS V14.01,2013-03-06 03:42:00,
2013-03-05 22:43:00,65.1,60.8,30.12,East,93,0.0,0.0,86,0.00,,FEW,0.00,0.00,VWS V14.01,2013-03-06 03:43:00,
2013-03-05 22:45:00,65.1,60.8,30.12,East,93,0.0,0.0,86,0.00,,FEW,0.00,0.00,VWS V14.01,2013-03-06 03:45:00,
2013-03-05 22:47:00,65.1,60.8,30.12,East,93,0.0,0.0,86,0.00,,FEW,0.00,0.00,VWS V14.01,2013-03-06 03:47:00,
2013-03-05 22:48:00,65.0,60.7,30.12,East,93,0.0,0.0,86,0.00,,FEW,0.00,0.00,VWS V14.01,2013-03-06 03:48:00,
2013-03-05 22:51:00,65.0,60.7,30.12,East,93,0.0,0.0,86,0.00,,FEW,0.00,0.00,VWS V14.01,2013-03-06 03:51:00,
2013-03-05 22:52:00,65.0,60.7,30.12,East,93,0.0,0.0,86,0.00,,FEW,0.00,0.00,VWS V14.01,2013-03-06 03:52:00,
2013-03-05 22:53:00,64.9,60.6,30.12,East,93,0.0,0.0,86,0.00,,FEW,0.00,0.00,VWS V14.01,2013-03-06 03:53:00,
2013-03-05 22:56:00,64.8,60.5,30.12,East,93,0.0,0.0,86,0.00,,FEW,0.00,0.00,VWS V14.01,2013-03-06 03:56:00,
2013-03-05 22:57:00,64.8,60.5,30.12,East,93,0.0,0.0,86,0.00,,FEW,0.00,0.00,VWS V14.01,2013-03-06 03:57:00,
2013-03-05 22:58:00,64.8,60.5,30.12,East,93,1.0,1.0,86,0.00,,FEW,0.00,0.00,VWS V14.01,2013-03-06 03:58:00,
2013-03-05 23:01:00,64.8,60.8,30.11,East,93,1.0,1.0,87,0.00,,FEW,0.00,0.00,VWS V14.01,2013-03-06 04:01:00,
2013-03-05 23:02:00,64.8,60.8,30.11,East,93,0.0,1.0,87,0.00,,FEW,0.00,0.00,VWS V14.01,2013-03-06 04:02:00,
2013-03-05 23:03:00,64.8,60.8,30.11,East,93,0.0,1.0,87,0.00,,FEW,0.00,0.00,VWS V14.01,2013-03-06 04:03:00,
2013-03-05 23:06:00,64.8,60.8,30.11,East,93,0.0,1.0,87,0.00,,FEW,0.00,0.00,VWS V14.01,2013-03-06 04:06:00,
2013-03-05 23:07:00,64.7,60.8,30.11,East,93,0.0,1.0,87,0.00,,FEW,0.00,0.00,VWS V14.01,2013-03-06 04:07:00,
2013-03-05 23:08:00,64.7,60.8,30.11,East,93,0.0,1.0,87,0.00,,FEW,0.00,0.00,VWS V14.01,2013-03-06 04:08:00,
2013-03-05 23:11:00,64.6,61.0,30.11,East,93,0.0,1.0,88,0.00,,FEW,0.00,0.00,VWS V14.01,2013-03-06 04:11:00,
2013-03-05 23:12:00,64.6,61.0,30.11,East,93,0.0,0.0,88,0.00,,FEW,0.00,0.00,VWS V14.01,2013-03-06 04:12:00,
2013-03-05 23:13:00,64.5,60.9,30.11,East,93,0.0,0.0,88,0.00,,FEW,0.00,0.00,VWS V14.01,2013-03-06 04:13:00,
2013-03-05 23:17:00,64.5,60.9,30.11,East,93,0.0,1.0,88,0.00,,FEW,0.00,0.00,VWS V14.01,2013-03-06 04:17:00,
2013-03-05 23:18:00,64.5,60.9,30.11,East,93,0.0,1.0,88,0.00,,FEW,0.00,0.00,VWS V14.01,2013-03-06 04:18:00,
2013-03-05 23:22:00,64.4,60.8,30.11,East,93,0.0,0.0,88,0.00,,FEW,0.00,0.00,VWS V14.01,2013-03-06 04:22:00,
2013-03-05 23:23:00,64.4,60.8,30.11,East,93,0.0,0.0,88,0.00,,FEW,0.00,0.00,VWS V14.01,2013-03-06 04:23:00,
2013-03-05 23:24:00,64.4,60.8,30.11,East,93,0.0,0.0,88,0.00,,FEW,0.00,0.00,VWS V14.01,2013-03-06 04:24:00,
2013-03-05 23:27:00,64.3,60.7,30.11,East,93,0.0,1.0,88,0.00,,FEW,0.00,0.00,VWS V14.01,2013-03-06 04:27:00,
2013-03-05 23:28:00,64.2,60.6,30.11,East,93,1.0,1.0,88,0.00,,FEW,0.00,0.00,VWS V14.01,2013-03-06 04:28:00,
2013-03-05 23:29:00,64.2,60.6,30.11,East,93,1.0,1.0,88,0.00,,FEW,0.00,0.00,VWS V14.01,2013-03-06 04:29:00,
2013-03-05 23:32:00,64.0,60.4,30.11,East,93,0.0,1.0,88,0.00,,FEW,0.00,0.00,VWS V14.01,2013-03-06 04:32:00,
2013-03-05 23:33:00,63.9,60.3,30.11,East,93,0.0,1.0,88,0.00,,FEW,0.00,0.00,VWS V14.01,2013-03-06 04:33:00,
2013-03-05 23:34:00,63.9,60.3,30.11,East,93,0.0,1.0,88,0.00,,FEW,0.00,0.00,VWS V14.01,2013-03-06 04:34:00,
2013-03-05 23:37:00,63.6,60.0,30.11,East,93,0.0,1.0,88,0.00,,FEW,0.00,0.00,VWS V14.01,2013-03-06 04:37:00,
2013-03-05 23:38:00,63.6,60.0,30.11,East,93,0.0,1.0,88,0.00,,FEW,0.00,0.00,VWS V14.01,2013-03-06 04:38:00,
2013-03-05 23:39:00,63.6,60.0,30.11,East,93,0.0,1.0,88,0.00,,FEW,0.00,0.00,VWS V14.01,2013-03-06 04:39:00,
2013-03-05 23:42:00,63.4,59.8,30.11,East,93,0.0,0.0,88,0.00,,FEW,0.00,0.00,VWS V14.01,2013-03-06 04:42:00,
2013-03-05 23:43:00,63.4,59.8,30.11,East,93,0.0,0.0,88,0.00,,FEW,0.00,0.00,VWS V14.01,2013-03-06 04:43:00,
2013-03-05 23:44:00,63.4,59.8,30.11,East,93,0.0,0.0,88,0.00,,FEW,0.00,0.00,VWS V14.01,2013-03-06 04:44:00,
2013-03-05 23:47:00,63.2,59.6,30.10,East,93,0.0,0.0,88,0.00,,FEW,0.00,0.00,VWS V14.01,2013-03-06 04:47:00,
2013-03-05 23:48:00,63.2,59.6,30.10,East,93,0.0,0.0,88,0.00,,FEW,0.00,0.00,VWS V14.01,2013-03-06 04:48:00,
2013-03-05 23:49:00,63.2,59.6,30.10,East,93,0.0,0.0,88,0.00,,FEW,0.00,0.00,VWS V14.01,2013-03-06 04:49:00,
2013-03-05 23:52:00,63.0,59.4,30.10,East,93,0.0,0.0,88,0.00,,FEW,0.00,0.00,VWS V14.01,2013-03-06 04:52:00,
2013-03-05 23:53:00,62.9,59.3,30.10,East,93,0.0,0.0,88,0.00,,FEW,0.00,0.00,VWS V14.01,2013-03-06 04:53:00,
2013-03-05 23:54:00,62.9,59.3,30.10,East,93,0.0,0.0,88,0.00,,FEW,0.00,0.00,VWS V14.01,2013-03-06 04:54:00,
2013-03-05 23:57:00,62.8,59.2,30.10,East,93,0.0,1.0,88,0.00,,FEW,0.00,0.00,VWS V14.01,2013-03-06 04:57:00,
2013-03-05 23:58:00,62.8,59.2,30.10,East,93,0.0,1.0,88,0.00,,FEW,0.00,0.00,VWS V14.01,2013-03-06 04:58:00,
2013-03-05 23:59:00,62.8,59.2,30.10,East,93,0.0,1.0,88,0.00,,FEW,0.00,0.00,VWS V14.01,2013-03-06 04:59:00,